EW4595 Weather Reports


Display with metric or nautical units.
time (UTC)temp
F
wind
direction
speed
MPH
gust
MPH
rain 1hr
in
rain 24hr
in
rain mn
in
humidity
%
barometer
mb
20260906225218 50 80 2.0 4.0 0.00 0.00 0.00 52 1031.2
20260906225203 50 78 2.0 4.0 0.00 0.00 0.00 52 1031.2
20260906225103 50 81 2.0 4.0 0.00 0.00 0.00 52 1031.1
20260906224903 50 76 2.0 4.0 0.00 0.00 0.00 52 1031.0
20260906224803 50 80 2.0 4.0 0.00 0.00 0.00 52 1031.2
20260906224703 50 88 2.0 4.0 0.00 0.00 0.00 51 1031.0
20260906224603 50 90 2.0 4.0 0.00 0.00 0.00 51 1031.2
20260906224503 50 79 2.0 4.0 0.00 0.00 0.00 51 1031.4
20260906224403 50 84 2.0 4.0 0.00 0.00 0.00 52 1031.2
20260906224303 50 74 0.0 4.0 0.00 0.00 0.00 52 1031.1
20260906224203 50 71 0.0 4.0 0.00 0.00 0.00 52 1031.2
20260906224103 50 78 2.0 6.0 0.00 0.00 0.00 52 1031.1
20260906224003 50 82 2.0 6.0 0.00 0.00 0.00 51 1031.1
20260906223918 50 77 2.0 6.0 0.00 0.00 0.00 51 1031.0
20260906223903 50 75 1.0 6.0 0.00 0.00 0.00 51 1031.2
20260906223803 50 74 2.0 6.0 0.00 0.00 0.00 51 1031.0
20260906223603 50 80 3.0 6.0 0.00 0.00 0.00 51 1031.1
20260906223503 50 72 2.0 6.0 0.00 0.00 0.00 52 1031.2
20260906223404 50 75 2.0 6.0 0.00 0.00 0.00 52 1031.1
20260906223303 50 80 2.0 6.0 0.00 0.00 0.00 52 1031.0
20260906223203 50 76 2.0 6.0 0.00 0.00 0.00 51 1030.9
20260906223103 50 65 1.0 6.0 0.00 0.00 0.00 50 1030.9
20260906223003 50 70 1.0 6.0 0.00 0.00 0.00 50 1031.0
20260906222907 50 87 2.0 7.0 0.00 0.00 0.00 50 1030.9
20260906222803 50 93 1.0 7.0 0.00 0.00 0.00 50 1030.9
20260906222703 50 93 2.0 7.0 0.00 0.00 0.00 50 1031.0
20260906222603 50 104 2.0 7.0 0.00 0.00 0.00 50 1031.0
20260906222503 50 109 3.0 7.0 0.00 0.00 0.00 49 1031.1
20260906222403 50 97 4.0 7.0 0.00 0.00 0.00 49 1030.9
20260906222306 50 98 4.0 6.0 0.00 0.00 0.00 47 1030.8
20260906222203 50 120 4.0 6.0 0.00 0.00 0.00 46 1031.0
20260906222103 50 104 1.0 4.0 0.00 0.00 0.00 46 1030.9
20260906222003 50 99 1.0 4.0 0.00 0.00 0.00 46 1030.9
20260906221903 50 112 2.0 4.0 0.00 0.00 0.00 46 1031.0
20260906221803 50 114 1.0 4.0 0.00 0.00 0.00 46 1030.8
20260906221717 50 117 1.0 4.0 0.00 0.00 0.00 46 1030.9
20260906221703 50 116 1.0 4.0 0.00 0.00 0.00 46 1030.9
20260906221403 51 94 2.0 4.0 0.00 0.00 0.00 45 1031.1
20260906221303 51 97 2.0 4.0 0.00 0.00 0.00 46 1030.9
20260906221203 51 83 1.0 4.0 0.00 0.00 0.00 47 1030.9
20260906221103 51 86 2.0 6.0 0.00 0.00 0.00 46 1030.8
20260906221004 51 94 2.0 6.0 0.00 0.00 0.00 46 1030.8
20260906220903 51 95 2.0 6.0 0.00 0.00 0.00 46 1031.1
20260906220703 51 97 4.0 6.0 0.00 0.00 0.00 45 1031.0
20260906220603 51 99 2.0 6.0 0.00 0.00 0.00 46 1031.1
20260906220503 51 99 4.0 6.0 0.00 0.00 0.00 46 1030.9
20260906220403 51 109 3.0 6.0 0.00 0.00 0.00 46 1030.9
20260906220303 51 99 2.0 7.0 0.00 0.00 0.00 46 1030.9
20260906220203 51 91 2.0 7.0 0.00 0.00 0.00 46 1030.8
20260906220003 51 77 2.0 7.0 0.00 0.00 0.00 46 1030.7
20260906215903 51 59 4.0 7.0 0.00 0.00 0.00 46 1030.8
20260906215803 51 61 3.0 7.0 0.00 0.00 0.00 47 1031.0
20260906215703 51 90 2.0 4.0 0.00 0.00 0.00 48 1031.0
20260906215613 51 85 1.0 4.0 0.00 0.00 0.00 48 1030.9
20260906215503 51 91 0.0 4.0 0.00 0.00 0.00 47 1030.9
20260906215403 51 79 1.0 4.0 0.00 0.00 0.00 48 1030.8
20260906215317 51 73 2.0 4.0 0.00 0.00 0.00 47 1031.0
20260906215306 51 72 2.0 4.0 0.00 0.00 0.00 47 1031.0
20260906215203 51 69 2.0 4.0 0.00 0.00 0.00 47 1030.8
20260906215003 51 77 2.0 4.0 0.00 0.00 0.00 46 1031.1
20260906214903 51 95 2.0 4.0 0.00 0.00 0.00 45 1030.8
20260906214803 51 111 2.0 4.0 0.00 0.00 0.00 45 1031.1
20260906214703 51 119 2.0 4.0 0.00 0.00 0.00 45 1031.0
20260906214603 51 125 2.0 4.0 0.00 0.00 0.00 45 1031.0
20260906214503 51 136 2.0 4.0 0.00 0.00 0.00 44 1030.9
20260906214416 51 141 2.0 4.0 0.00 0.00 0.00 44 1030.8
20260906214403 51 142 2.0 4.0 0.00 0.00 0.00 44 1030.8
20260906214303 51 137 2.0 4.0 0.00 0.00 0.00 44 1031.0
20260906214103 52 116 2.0 4.0 0.00 0.00 0.00 44 1031.0
20260906214003 52 114 2.0 6.0 0.00 0.00 0.00 44 1030.9
20260906213903 52 106 2.0 7.0 0.00 0.00 0.00 44 1030.9
20260906213803 52 92 2.0 7.0 0.00 0.00 0.00 44 1030.9
20260906213703 52 74 2.0 7.0 0.00 0.00 0.00 44 1030.9
20260906213603 52 59 3.0 7.0 0.00 0.00 0.00 44 1031.0
20260906213503 52 57 4.0 7.0 0.00 0.00 0.00 44 1030.9
20260906213403 52 53 4.0 7.0 0.00 0.00 0.00 44 1031.0
20260906213303 52 70 2.0 8.0 0.00 0.00 0.00 44 1030.9
20260906213203 52 89 4.0 8.0 0.00 0.00 0.00 44 1030.8
20260906213103 52 109 3.0 8.0 0.00 0.00 0.00 44 1030.7
20260906213003 52 105 3.0 8.0 0.00 0.00 0.00 44 1031.0
20260906212903 52 102 3.0 8.0 0.00 0.00 0.00 44 1031.0
20260906212703 53 137 2.0 7.0 0.00 0.00 0.00 43 1030.8
20260906212603 53 128 2.0 7.0 0.00 0.00 0.00 43 1030.7
20260906212503 53 113 2.0 7.0 0.00 0.00 0.00 43 1030.7
20260906212405 53 116 1.0 7.0 0.00 0.00 0.00 43 1030.8
20260906212306 53 129 2.0 7.0 0.00 0.00 0.00 43 1031.0
20260906212203 53 141 2.0 7.0 0.00 0.00 0.00 43 1030.7
20260906212103 53 136 2.0 7.0 0.00 0.00 0.00 43 1030.6
20260906212005 53 211 4.0 6.0 0.00 0.00 0.00 43 1030.8
20260906211903 53 225 2.0 4.0 0.00 0.00 0.00 42 1030.8
20260906211803 53 126 2.0 4.0 0.00 0.00 0.00 42 1030.7
20260906211703 54 105 1.0 4.0 0.00 0.00 0.00 42 1030.6
20260906211603 54 120 0.0 4.0 0.00 0.00 0.00 43 1030.7
20260906211505 53 141 1.0 4.0 0.00 0.00 0.00 42 1030.7
20260906211403 53 154 2.0 4.0 0.00 0.00 0.00 42 1030.7
20260906211303 53 160 2.0 8.0 0.00 0.00 0.00 42 1030.6
20260906211103 53 137 2.0 8.0 0.00 0.00 0.00 42 1031.0
20260906211003 53 128 1.0 8.0 0.00 0.00 0.00 42 1030.7
20260906210903 53 137 2.0 8.0 0.00 0.00 0.00 42 1030.7
20260906210803 53 147 4.0 8.0 0.00 0.00 0.00 42 1030.8
20260906210703 53 160 2.0 8.0 0.00 0.00 0.00 42 1030.7
20260906210603 53 166 2.0 8.0 0.00 0.00 0.00 41 1030.7
20260906210504 53 158 4.0 9.0 0.00 0.00 0.00 42 1030.8
20260906210418 53 134 3.0 9.0 0.00 0.00 0.00 41 1030.8
20260906210403 53 125 3.0 9.0 0.00 0.00 0.00 41 1030.8
20260906210304 54 94 1.0 9.0 0.00 0.00 0.00 42 1030.9
20260906210103 53 64 3.0 9.0 0.00 0.00 0.00 43 1030.5
20260906210003 53 40 4.0 9.0 0.00 0.00 0.00 42 1030.9
20260906205903 53 30 4.0 8.0 0.00 0.00 0.00 42 1030.8
20260906205803 54 55 2.0 8.0 0.00 0.00 0.00 42 1030.8
20260906205703 54 42 2.0 8.0 0.00 0.00 0.00 42 1030.7
20260906205603 53 73 3.0 9.0 0.00 0.00 0.00 42 1030.6
20260906205503 53 84 2.0 11.0 0.00 0.00 0.00 43 1030.7
20260906205403 53 79 4.0 11.0 0.00 0.00 0.00 43 1030.8
20260906205306 53 71 2.0 11.0 0.00 0.00 0.00 43 1030.8
20260906205217 53 75 4.0 11.0 0.00 0.00 0.00 43 1030.8
20260906205203 53 80 4.0 11.0 0.00 0.00 0.00 43 1030.8
20260906205103 53 69 4.0 11.0 0.00 0.00 0.00 43 1030.6
20260906204941 53 69 8.0 11.0 0.00 0.00 0.00 43 1030.7
20260906204503 54 67 2.0 8.0 0.00 0.00 0.00 43 1030.6
20260906204418 54 73 3.0 8.0 0.00 0.00 0.00 42 1030.9
20260906204303 54 79 2.0 8.0 0.00 0.00 0.00 42 1030.9
20260906204103 53 89 4.0 8.0 0.00 0.00 0.00 43 1030.8
20260906204003 54 88 4.0 7.0 0.00 0.00 0.00 43 1030.9
20260906203917 53 83 4.0 7.0 0.00 0.00 0.00 43 1030.8
20260906203903 54 81 4.0 7.0 0.00 0.00 0.00 42 1030.9
20260906203803 54 79 3.0 7.0 0.00 0.00 0.00 42 1030.9
20260906203617 55 89 2.0 7.0 0.00 0.00 0.00 41 1030.8
20260906203603 55 91 2.0 7.0 0.00 0.00 0.00 41 1030.8
20260906203517 54 94 4.0 8.0 0.00 0.00 0.00 40 1030.9
20260906203503 54 96 3.0 8.0 0.00 0.00 0.00 41 1030.9
20260906203203 54 84 2.0 8.0 0.00 0.00 0.00 42 1031.1
20260906203103 54 86 4.0 8.0 0.00 0.00 0.00 42 1030.8
20260906203003 54 95 4.0 8.0 0.00 0.00 0.00 42 1030.9
20260906202903 54 96 5.0 8.0 0.00 0.00 0.00 41 1030.9
20260906202803 55 95 4.0 8.0 0.00 0.00 0.00 42 1030.7
20260906202703 54 101 2.0 7.0 0.00 0.00 0.00 42 1030.8
20260906202603 54 97 2.0 7.0 0.00 0.00 0.00 42 1031.1
20260906202503 55 88 4.0 7.0 0.00 0.00 0.00 41 1030.9
20260906202403 55 88 2.0 4.0 0.00 0.00 0.00 41 1030.9
20260906202306 55 98 2.0 4.0 0.00 0.00 0.00 41 1030.8
20260906202203 55 110 2.0 6.0 0.00 0.00 0.00 40 1031.0
20260906202118 55 111 2.0 6.0 0.00 0.00 0.00 40 1031.0
20260906202103 55 115 2.0 6.0 0.00 0.00 0.00 40 1031.0
20260906202018 54 113 2.0 7.0 0.00 0.00 0.00 41 1030.8
20260906202003 54 111 2.0 7.0 0.00 0.00 0.00 41 1030.8
20260906201703 54 72 4.0 8.0 0.00 0.00 0.00 40 1030.8
20260906201603 55 71 2.0 8.0 0.00 0.00 0.00 40 1030.9
20260906201503 55 37 4.0 8.0 0.00 0.00 0.00 40 1030.7
20260906201403 55 40 2.0 9.0 0.00 0.00 0.00 40 1031.1
20260906201318 55 73 2.0 9.0 0.00 0.00 0.00 40 1031.1
20260906201303 55 83 2.0 9.0 0.00 0.00 0.00 40 1031.1
20260906201203 54 101 3.0 9.0 0.00 0.00 0.00 40 1031.0
20260906201003 54 94 3.0 9.0 0.00 0.00 0.00 41 1030.9
20260906200903 54 107 5.0 9.0 0.00 0.00 0.00 41 1030.9
20260906200803 55 86 4.0 8.0 0.00 0.00 0.00 40 1030.9
20260906200718 55 56 4.0 7.0 0.00 0.00 0.00 40 1030.8
20260906200703 56 44 2.0 7.0 0.00 0.00 0.00 40 1031.0
20260906200603 56 19 4.0 7.0 0.00 0.00 0.00 39 1031.0
20260906200517 56 282 2.0 6.0 0.00 0.00 0.00 39 1031.1
20260906200403 58 283 1.0 4.0 0.00 0.00 0.00 38 1030.9
20260906200203 56 253 1.0 4.0 0.00 0.00 0.00 38 1030.8
20260906200103 56 249 0.0 4.0 0.00 0.00 0.00 39 1031.0
20260906200004 56 258 0.0 4.0 0.00 0.00 0.00 39 1030.9
20260906195903 56 237 2.0 4.0 0.00 0.00 0.00 39 1031.1
20260906195803 56 208 0.0 6.0 0.00 0.00 0.00 40 1031.0
20260906195703 56 153 0.0 6.0 0.00 0.00 0.00 40 1031.1
20260906195603 55 138 1.0 6.0 0.00 0.00 0.00 41 1031.2
20260906195503 55 126 1.0 6.0 0.00 0.00 0.00 41 1031.0
20260906195403 55 116 2.0 6.0 0.00 0.00 0.00 42 1030.9
20260906195306 55 120 4.0 6.0 0.00 0.00 0.00 42 1030.9
20260906195203 55 118 3.0 6.0 0.00 0.00 0.00 41 1031.2
20260906195103 56 121 1.0 6.0 0.00 0.00 0.00 41 1031.0
20260906195003 56 113 2.0 6.0 0.00 0.00 0.00 41 1031.1
20260906194903 55 118 2.0 6.0 0.00 0.00 0.00 41 1031.0
20260906194817 55 114 2.0 6.0 0.00 0.00 0.00 40 1030.9
20260906194803 55 129 2.0 6.0 0.00 0.00 0.00 40 1030.9
20260906194703 56 248 2.0 4.0 0.00 0.00 0.00 38 1031.2
20260906194503 56 300 0.0 4.0 0.00 0.00 0.00 39 1030.9
20260906194403 55 334 2.0 4.0 0.00 0.00 0.00 38 1031.1
20260906194304 55 343 1.0 4.0 0.00 0.00 0.00 38 1030.8
20260906194203 55 55 2.0 6.0 0.00 0.00 0.00 38 1031.0
20260906194103 55 119 2.0 6.0 0.00 0.00 0.00 37 1031.1
20260906194003 56 122 2.0 6.0 0.00 0.00 0.00 36 1031.2
20260906193903 56 125 1.0 6.0 0.00 0.00 0.00 36 1031.2
20260906193803 56 119 1.0 6.0 0.00 0.00 0.00 37 1031.1
20260906193703 55 117 4.0 6.0 0.00 0.00 0.00 37 1031.2
20260906193603 55 136 2.0 6.0 0.00 0.00 0.00 36 1031.3
20260906193503 55 170 2.0 6.0 0.00 0.00 0.00 37 1031.1
20260906193403 55 192 2.0 6.0 0.00 0.00 0.00 38 1031.4
20260906193304 54 213 2.0 6.0 0.00 0.00 0.00 38 1031.1
20260906193203 54 222 2.0 6.0 0.00 0.00 0.00 37 1031.5
20260906193103 55 177 2.0 4.0 0.00 0.00 0.00 38 1031.3
20260906192903 56 98 2.0 6.0 0.00 0.00 0.00 40 1031.1
20260906192803 56 102 2.0 6.0 0.00 0.00 0.00 40 1031.3
20260906192703 55 107 2.0 6.0 0.00 0.00 0.00 41 1031.4
20260906192603 55 103 2.0 9.0 0.00 0.00 0.00 40 1031.4
20260906192503 55 97 2.0 9.0 0.00 0.00 0.00 40 1031.3
20260906192403 56 92 3.0 9.0 0.00 0.00 0.00 39 1031.3
20260906192306 56 99 2.0 9.0 0.00 0.00 0.00 40 1031.0
20260906192203 55 106 2.0 9.0 0.00 0.00 0.00 40 1031.3
20260906192103 56 112 4.0 9.0 0.00 0.00 0.00 39 1031.2
20260906192003 56 175 2.0 8.0 0.00 0.00 0.00 40 1031.2
20260906191903 55 224 2.0 8.0 0.00 0.00 0.00 39 1031.1
20260906191803 55 233 4.0 8.0 0.00 0.00 0.00 39 1031.5
20260906191703 55 223 2.0 4.0 0.00 0.00 0.00 38 1031.2
20260906191603 56 218 2.0 6.0 0.00 0.00 0.00 36 1031.5
20260906191503 56 226 1.0 6.0 0.00 0.00 0.00 36 1031.3
20260906191403 56 224 2.0 6.0 0.00 0.00 0.00 36 1031.3
20260906191303 57 233 1.0 6.0 0.00 0.00 0.00 36 1031.2
20260906191216 57 230 1.0 6.0 0.00 0.00 0.00 36 1031.2
20260906191203 57 231 1.0 6.0 0.00 0.00 0.00 36 1031.2
20260906191103 57 251 2.0 6.0 0.00 0.00 0.00 35 1031.5
20260906190903 58 169 1.0 2.0 0.00 0.00 0.00 38 1031.6
20260906190817 57 119 0.0 4.0 0.00 0.00 0.00 40 1031.5
20260906190803 57 110 0.0 4.0 0.00 0.00 0.00 40 1031.5
20260906190703 55 123 1.0 6.0 0.00 0.00 0.00 41 1031.4
20260906190504 55 114 2.0 6.0 0.00 0.00 0.00 41 1031.5
20260906190403 55 116 2.0 6.0 0.00 0.00 0.00 42 1031.4
20260906190303 55 132 4.0 6.0 0.00 0.00 0.00 41 1031.4
20260906190203 55 127 4.0 6.0 0.00 0.00 0.00 41 1031.4
20260906190103 55 153 2.0 6.0 0.00 0.00 0.00 41 1031.5
20260906190003 55 149 1.0 6.0 0.00 0.00 0.00 41 1031.5
20260906185903 56 110 4.0 6.0 0.00 0.00 0.00 39 1031.5
20260906185803 57 79 2.0 4.0 0.00 0.00 0.00 37 1031.5
20260906185703 56 61 0.0 4.0 0.00 0.00 0.00 37 1031.6
20260906185603 55 75 2.0 4.0 0.00 0.00 0.00 36 1031.5
20260906185517 56 108 2.0 7.0 0.00 0.00 0.00 37 1031.6
20260906185503 56 106 2.0 7.0 0.00 0.00 0.00 38 1031.4
20260906185403 56 114 2.0 7.0 0.00 0.00 0.00 38 1031.5
20260906185203 56 164 1.0 7.0 0.00 0.00 0.00 39 1031.5
20260906185103 55 202 3.0 7.0 0.00 0.00 0.00 37 1031.6
20260906185003 56 218 2.0 8.0 0.00 0.00 0.00 38 1031.7
20260906184903 55 225 2.0 8.0 0.00 0.00 0.00 38 1031.6
20260906184803 55 229 2.0 8.0 0.00 0.00 0.00 39 1031.4
20260906184603 55 220 4.0 8.0 0.00 0.00 0.00 39 1031.7
20260906184504 55 216 4.0 8.0 0.00 0.00 0.00 38 1031.7
20260906184403 57 217 1.0 4.0 0.00 0.00 0.00 39 1031.5
20260906184303 56 200 0.0 8.0 0.00 0.00 0.00 40 1031.6
20260906184203 55 218 1.0 8.0 0.00 0.00 0.00 40 1031.6
20260906184103 54 204 1.0 8.0 0.00 0.00 0.00 41 1031.6
20260906184017 53 200 2.0 8.0 0.00 0.00 0.00 40 1031.6
20260906184003 53 198 2.0 8.0 0.00 0.00 0.00 40 1031.6
20260906183903 55 197 2.0 8.0 0.00 0.00 0.00 40 1031.9
20260906183707 55 210 2.0 8.0 0.00 0.00 0.00 39 1031.8
20260906183603 55 220 3.0 8.0 0.00 0.00 0.00 40 1032.0
20260906183503 55 230 3.0 8.0 0.00 0.00 0.00 40 1031.7
20260906183403 55 241 2.0 6.0 0.00 0.00 0.00 40 1031.6
20260906183303 55 242 4.0 6.0 0.00 0.00 0.00 40 1031.6
20260906183203 55 242 4.0 6.0 0.00 0.00 0.00 39 1031.9
20260906183105 56 258 2.0 4.0 0.00 0.00 0.00 40 1031.6
20260906183004 56 244 1.0 4.0 0.00 0.00 0.00 41 1031.7
20260906182903 55 189 1.0 4.0 0.00 0.00 0.00 41 1031.8
20260906182803 54 190 2.0 4.0 0.00 0.00 0.00 41 1031.6
20260906182703 55 177 1.0 4.0 0.00 0.00 0.00 40 1031.6
20260906182603 54 205 2.0 6.0 0.00 0.00 0.00 41 1031.8
20260906182503 54 152 3.0 9.0 0.00 0.00 0.00 41 1031.8
20260906182403 55 4 2.0 9.0 0.00 0.00 0.00 40 1031.6
20260906182306 54 102 2.0 9.0 0.00 0.00 0.00 41 1031.7
20260906182203 54 77 2.0 9.0 0.00 0.00 0.00 42 1031.8
20260906182103 53 105 4.0 9.0 0.00 0.00 0.00 41 1031.7
20260906182003 54 104 4.0 9.0 0.00 0.00 0.00 40 1031.6
20260906181903 55 115 4.0 9.0 0.00 0.00 0.00 40 1031.6
20260906181803 55 117 4.0 9.0 0.00 0.00 0.00 39 1031.7
20260906181703 55 160 3.0 7.0 0.00 0.00 0.00 39 1031.8
20260906181618 55 147 3.0 7.0 0.00 0.00 0.00 39 1031.8
20260906181603 55 140 3.0 7.0 0.00 0.00 0.00 39 1031.8
20260906181503 55 140 3.0 7.0 0.00 0.00 0.00 40 1031.7
20260906181303 54 140 1.0 6.0 0.00 0.00 0.00 39 1032.0
20260906181203 54 164 2.0 6.0 0.00 0.00 0.00 39 1032.0
20260906181103 55 193 2.0 6.0 0.00 0.00 0.00 39 1031.9
20260906181003 55 202 3.0 6.0 0.00 0.00 0.00 40 1032.1
20260906180903 54 190 2.0 7.0 0.00 0.00 0.00 40 1031.8
20260906180817 54 193 2.0 9.0 0.00 0.00 0.00 40 1031.8
20260906180703 54 195 2.0 14.0 0.00 0.00 0.00 41 1032.1
20260906180503 53 207 4.0 14.0 0.00 0.00 0.00 41 1032.1
20260906180403 54 217 4.0 14.0 0.00 0.00 0.00 41 1032.2
20260906180303 54 231 7.0 14.0 0.00 0.00 0.00 40 1032.1
20260906180203 56 262 2.0 7.0 0.00 0.00 0.00 39 1032.1
20260906180117 56 172 2.0 7.0 0.00 0.00 0.00 39 1032.0
20260906180103 56 142 2.0 7.0 0.00 0.00 0.00 39 1032.0
20260906180017 56 98 3.0 7.0 0.00 0.00 0.00 39 1032.2
20260906180004 56 84 3.0 7.0 0.00 0.00 0.00 39 1032.2
20260906175703 54 99 4.0 7.0 0.00 0.00 0.00 39 1032.5
20260906175603 55 109 4.0 7.0 0.00 0.00 0.00 38 1032.3
20260906175503 55 141 2.0 7.0 0.00 0.00 0.00 39 1032.2
20260906175403 56 135 3.0 7.0 0.00 0.00 0.00 38 1032.3
20260906175317 56 148 0.0 6.0 0.00 0.00 0.00 39 1032.3
20260906175306 56 141 0.0 6.0 0.00 0.00 0.00 39 1032.3
20260906175203 55 134 2.0 6.0 0.00 0.00 0.00 39 1032.4
20260906175003 55 132 2.0 8.0 0.00 0.00 0.00 39 1032.2
20260906174903 56 106 2.0 8.0 0.00 0.00 0.00 39 1032.4
20260906174818 55 133 3.0 8.0 0.00 0.00 0.00 39 1032.4
20260906174703 56 153 2.0 8.0 0.00 0.00 0.00 39 1032.3
20260906174503 55 146 2.0 8.0 0.00 0.00 0.00 38 1032.4
20260906174417 54 167 2.0 8.0 0.00 0.00 0.00 40 1032.5
20260906174403 54 171 2.0 8.0 0.00 0.00 0.00 40 1032.5
20260906174318 54 180 3.0 8.0 0.00 0.00 0.00 41 1032.7
20260906174303 54 179 2.0 8.0 0.00 0.00 0.00 40 1032.3
20260906174003 54 212 4.0 7.0 0.00 0.00 0.00 40 1032.6
20260906173903 53 216 3.0 7.0 0.00 0.00 0.00 40 1032.6
20260906173803 53 219 4.0 7.0 0.00 0.00 0.00 40 1032.8
20260906173703 54 240 2.0 7.0 0.00 0.00 0.00 38 1032.7
20260906173603 53 246 3.0 7.0 0.00 0.00 0.00 39 1032.6
20260906173403 54 257 3.0 7.0 0.00 0.00 0.00 38 1032.7
20260906173318 54 252 3.0 9.0 0.00 0.00 0.00 38 1032.4
20260906173303 54 238 3.0 9.0 0.00 0.00 0.00 38 1032.4
20260906173218 55 205 3.0 9.0 0.00 0.00 0.00 37 1032.6
20260906173116 55 160 2.0 9.0 0.00 0.00 0.00 38 1032.7
20260906173017 56 159 2.0 9.0 0.00 0.00 0.00 39 1032.7
20260906172703 56 168 3.0 7.0 0.00 0.00 0.00 38 1032.9
20260906172603 56 181 2.0 8.0 0.00 0.00 0.00 38 1033.0
20260906172503 56 179 1.0 8.0 0.00 0.00 0.00 38 1032.8
20260906172403 54 180 2.0 8.0 0.00 0.00 0.00 40 1032.7
20260906172317 54 174 2.0 8.0 0.00 0.00 0.00 40 1033.0
20260906172306 54 168 2.0 8.0 0.00 0.00 0.00 39 1033.0
20260906172203 55 146 2.0 8.0 0.00 0.00 0.00 39 1032.9
20260906172119 54 133 3.0 8.0 0.00 0.00 0.00 39 1032.8
20260906172003 54 110 1.0 8.0 0.00 0.00 0.00 39 1032.7
20260906171803 55 80 2.0 8.0 0.00 0.00 0.00 39 1033.0
20260906171703 54 101 4.0 8.0 0.00 0.00 0.00 39 1032.9
20260906171508 55 181 2.0 8.0 0.00 0.00 0.00 40 1032.9
20260906171403 54 166 3.0 8.0 0.00 0.00 0.00 40 1033.1
20260906171303 55 155 1.0 8.0 0.00 0.00 0.00 40 1033.1
20260906171203 54 163 4.0 8.0 0.00 0.00 0.00 40 1033.0
20260906171003 54 176 4.0 8.0 0.00 0.00 0.00 39 1033.2
20260906170903 53 202 3.0 8.0 0.00 0.00 0.00 39 1033.2
20260906170818 53 197 4.0 8.0 0.00 0.00 0.00 39 1033.3
20260906170803 53 196 4.0 8.0 0.00 0.00 0.00 39 1033.3
20260906170703 55 167 2.0 11.0 0.00 0.00 0.00 39 1033.3
20260906170503 54 154 1.0 11.0 0.00 0.00 0.00 41 1032.9
20260906170403 54 128 3.0 11.0 0.00 0.00 0.00 41 1033.4
20260906170303 53 138 6.0 11.0 0.00 0.00 0.00 40 1033.3
20260906170203 54 172 2.0 8.0 0.00 0.00 0.00 40 1033.1
20260906170116 54 157 3.0 8.0 0.00 0.00 0.00 40 1033.1
20260906170103 54 162 3.0 8.0 0.00 0.00 0.00 40 1033.1
20260906170003 54 151 2.0 9.0 0.00 0.00 0.00 40 1033.3
20260906165803 55 142 4.0 9.0 0.00 0.00 0.00 40 1033.4
20260906165703 55 134 2.0 9.0 0.00 0.00 0.00 40 1033.4
20260906165503 54 77 2.0 11.0 0.00 0.00 0.00 42 1033.3
20260906165403 54 85 2.0 11.0 0.00 0.00 0.00 42 1033.6
20260906165306 55 74 2.0 11.0 0.00 0.00 0.00 42 1033.5
20260906165103 53 47 5.0 11.0 0.00 0.00 0.00 43 1033.6
20260906165003 54 52 3.0 11.0 0.00 0.00 0.00 42 1033.7
20260906164903 54 47 2.0 11.0 0.00 0.00 0.00 42 1033.6
20260906164803 54 53 3.0 11.0 0.00 0.00 0.00 42 1033.7
20260906164717 54 71 3.0 8.0 0.00 0.00 0.00 41 1033.8
20260906164703 54 81 2.0 6.0 0.00 0.00 0.00 42 1033.4
20260906164603 54 99 2.0 6.0 0.00 0.00 0.00 41 1033.6
20260906164403 54 72 0.0 9.0 0.00 0.00 0.00 42 1033.7
20260906164303 54 91 3.0 9.0 0.00 0.00 0.00 42 1033.9
20260906164203 53 149 2.0 9.0 0.00 0.00 0.00 42 1033.7
20260906164103 54 179 2.0 9.0 0.00 0.00 0.00 42 1033.7
20260906164003 53 223 4.0 9.0 0.00 0.00 0.00 43 1033.8
20260906163903 53 187 3.0 8.0 0.00 0.00 0.00 43 1033.7
20260906163803 52 201 4.0 8.0 0.00 0.00 0.00 42 1033.9
20260906163703 52 181 2.0 8.0 0.00 0.00 0.00 43 1033.9
20260906163603 52 161 3.0 8.0 0.00 0.00 0.00 42 1034.0
20260906163503 53 133 4.0 8.0 0.00 0.00 0.00 41 1033.9
20260906163403 54 141 3.0 9.0 0.00 0.00 0.00 41 1034.2
20260906163303 54 153 2.0 9.0 0.00 0.00 0.00 42 1034.0
20260906163203 53 162 2.0 9.0 0.00 0.00 0.00 42 1034.1
20260906163118 53 179 2.0 11.0 0.00 0.00 0.00 42 1033.9
20260906163103 53 183 2.0 11.0 0.00 0.00 0.00 42 1034.0
20260906163003 53 189 1.0 11.0 0.00 0.00 0.00 43 1034.0
20260906162803 52 179 5.0 11.0 0.00 0.00 0.00 43 1034.1
20260906162703 53 173 4.0 11.0 0.00 0.00 0.00 41 1034.2
20260906162603 53 150 4.0 11.0 0.00 0.00 0.00 41 1034.3
20260906162505 54 130 2.0 7.0 0.00 0.00 0.00 43 1034.1
20260906162403 52 154 2.0 7.0 0.00 0.00 0.00 43 1034.2
20260906162317 52 172 3.0 7.0 0.00 0.00 0.00 42 1034.4
20260906162306 52 178 3.0 8.0 0.00 0.00 0.00 42 1034.3
20260906162203 53 204 2.0 8.0 0.00 0.00 0.00 42 1034.2
20260906162003 52 156 4.0 8.0 0.00 0.00 0.00 43 1034.2
20260906161903 52 126 4.0 8.0 0.00 0.00 0.00 42 1034.3
20260906161803 52 104 5.0 8.0 0.00 0.00 0.00 43 1034.2
20260906161705 52 96 3.0 8.0 0.00 0.00 0.00 45 1034.4
20260906161503 53 98 2.0 7.0 0.00 0.00 0.00 44 1034.5
20260906161403 53 95 2.0 7.0 0.00 0.00 0.00 44 1034.3
20260906161303 53 104 4.0 7.0 0.00 0.00 0.00 44 1034.5
20260906161005 53 40 3.0 7.0 0.00 0.00 0.00 44 1034.4
20260906160903 52 45 2.0 7.0 0.00 0.00 0.00 46 1034.5
20260906160818 51 48 3.0 7.0 0.00 0.00 0.00 46 1034.4
20260906160803 51 49 3.0 7.0 0.00 0.00 0.00 46 1034.4
20260906160703 51 69 4.0 7.0 0.00 0.00 0.00 45 1034.5
20260906160617 52 74 4.0 7.0 0.00 0.00 0.00 45 1034.7
20260906160503 52 88 2.0 7.0 0.00 0.00 0.00 44 1034.4
20260906160418 53 92 2.0 7.0 0.00 0.00 0.00 44 1034.5
20260906160303 53 82 2.0 7.0 0.00 0.00 0.00 44 1034.6
20260906160103 53 82 3.0 14.0 0.00 0.00 0.00 45 1034.7
20260906160003 53 80 1.0 14.0 0.00 0.00 0.00 45 1034.7
20260906155917 53 92 1.0 14.0 0.00 0.00 0.00 45 1034.6
20260906155903 52 90 3.0 14.0 0.00 0.00 0.00 46 1034.5
20260906155803 52 91 4.0 14.0 0.00 0.00 0.00 45 1034.8
20260906155503 52 142 4.0 8.0 0.00 0.00 0.00 45 1034.8
20260906155403 53 124 4.0 7.0 0.00 0.00 0.00 44 1034.7
20260906155306 54 119 2.0 7.0 0.00 0.00 0.00 45 1034.8
20260906155217 54 107 2.0 7.0 0.00 0.00 0.00 45 1034.9
20260906155203 54 103 2.0 7.0 0.00 0.00 0.00 45 1034.9
20260906155118 53 87 2.0 7.0 0.00 0.00 0.00 45 1034.9
20260906155103 53 84 2.0 9.0 0.00 0.00 0.00 45 1034.8
20260906154803 53 61 3.0 9.0 0.00 0.00 0.00 47 1034.8
20260906154703 52 45 4.0 9.0 0.00 0.00 0.00 46 1034.8
20260906154603 52 63 4.0 9.0 0.00 0.00 0.00 46 1034.8
20260906154503 52 228 2.0 7.0 0.00 0.00 0.00 44 1035.0
20260906154406 51 204 2.0 4.0 0.00 0.00 0.00 43 1034.8
20260906154303 54 144 1.0 7.0 0.00 0.00 0.00 45 1034.8
20260906154203 53 138 0.0 7.0 0.00 0.00 0.00 44 1034.9
20260906154103 54 141 1.0 7.0 0.00 0.00 0.00 43 1035.0
20260906154003 54 167 1.0 7.0 0.00 0.00 0.00 45 1035.0
20260906153903 53 149 2.0 7.0 0.00 0.00 0.00 45 1034.9
20260906153805 53 156 4.0 8.0 0.00 0.00 0.00 43 1034.8
20260906153703 54 182 1.0 8.0 0.00 0.00 0.00 44 1035.0
20260906153603 53 181 2.0 8.0 0.00 0.00 0.00 44 1034.9
20260906153503 53 161 2.0 8.0 0.00 0.00 0.00 46 1035.0
20260906153403 52 176 4.0 8.0 0.00 0.00 0.00 46 1034.9
20260906153303 53 202 4.0 8.0 0.00 0.00 0.00 45 1034.9
20260906153203 54 195 2.0 4.0 0.00 0.00 0.00 46 1035.1
20260906153118 53 144 3.0 4.0 0.00 0.00 0.00 47 1035.2
20260906153103 53 157 1.0 7.0 0.00 0.00 0.00 48 1035.1
20260906153003 52 198 0.0 7.0 0.00 0.00 0.00 49 1034.9
20260906152803 51 229 1.0 7.0 0.00 0.00 0.00 49 1035.2
20260906152703 49 222 2.0 7.0 0.00 0.00 0.00 50 1035.3
20260906152605 49 226 4.0 7.0 0.00 0.00 0.00 50 1035.0
20260906152503 49 228 2.0 8.0 0.00 0.00 0.00 49 1035.1
20260906152403 50 227 3.0 9.0 0.00 0.00 0.00 48 1035.1
20260906152306 50 222 3.0 9.0 0.00 0.00 0.00 48 1035.4
20260906152203 50 231 3.0 9.0 0.00 0.00 0.00 48 1035.4
20260906152103 50 232 4.0 9.0 0.00 0.00 0.00 48 1035.4
20260906152003 50 224 4.0 9.0 0.00 0.00 0.00 47 1035.3
20260906151903 52 208 2.0 7.0 0.00 0.00 0.00 45 1035.5
20260906151805 52 204 4.0 7.0 0.00 0.00 0.00 45 1035.4
20260906151704 52 141 2.0 7.0 0.00 0.00 0.00 45 1035.4
20260906151603 53 90 2.0 4.0 0.00 0.00 0.00 45 1035.4
20260906151504 54 73 1.0 4.0 0.00 0.00 0.00 47 1035.6
20260906151403 54 55 0.0 4.0 0.00 0.00 0.00 47 1035.3
20260906151303 54 57 1.0 4.0 0.00 0.00 0.00 47 1035.4
20260906151203 53 38 2.0 6.0 0.00 0.00 0.00 48 1035.5
20260906151103 53 95 0.0 11.0 0.00 0.00 0.00 49 1035.4
20260906151005 52 104 2.0 11.0 0.00 0.00 0.00 49 1035.4
20260906150903 52 120 2.0 11.0 0.00 0.00 0.00 51 1035.4
20260906150803 51 117 2.0 11.0 0.00 0.00 0.00 50 1035.6
20260906150703 51 111 4.0 11.0 0.00 0.00 0.00 49 1035.4
20260906150603 52 104 3.0 7.0 0.00 0.00 0.00 49 1035.4
20260906150503 52 132 4.0 7.0 0.00 0.00 0.00 48 1035.5
20260906150403 52 110 4.0 7.0 0.00 0.00 0.00 48 1035.5
20260906150303 51 171 2.0 6.0 0.00 0.00 0.00 48 1035.7
20260906150204 51 197 3.0 6.0 0.00 0.00 0.00 49 1035.6
20260906150105 51 162 2.0 4.0 0.00 0.00 0.00 48 1035.6
20260906150003 52 199 2.0 7.0 0.00 0.00 0.00 49 1035.8
20260906145903 53 71 2.0 9.0 0.00 0.00 0.00 47 1035.6
20260906145803 52 69 1.0 9.0 0.00 0.00 0.00 48 1035.7
20260906145703 52 59 1.0 9.0 0.00 0.00 0.00 48 1035.8
20260906145603 51 61 2.0 9.0 0.00 0.00 0.00 49 1035.8
20260906145503 51 80 5.0 9.0 0.00 0.00 0.00 48 1035.8
20260906145306 52 11 2.0 8.0 0.00 0.00 0.00 49 1035.9
20260906145217 52 15 2.0 8.0 0.00 0.00 0.00 47 1036.0
20260906145203 52 27 2.0 8.0 0.00 0.00 0.00 47 1036.0
20260906145103 52 29 2.0 8.0 0.00 0.00 0.00 47 1035.8
20260906144903 52 70 3.0 8.0 0.00 0.00 0.00 48 1036.0
20260906144803 52 99 2.0 8.0 0.00 0.00 0.00 48 1035.7
20260906144706 53 114 2.0 4.0 0.00 0.00 0.00 49 1035.8
20260906144603 53 127 2.0 4.0 0.00 0.00 0.00 49 1036.0
20260906144503 53 137 3.0 4.0 0.00 0.00 0.00 49 1035.8
20260906144403 53 103 2.0 7.0 0.00 0.00 0.00 49 1035.9
20260906144303 53 118 2.0 7.0 0.00 0.00 0.00 50 1036.0
20260906144203 53 97 2.0 7.0 0.00 0.00 0.00 49 1035.8
20260906144103 53 108 2.0 7.0 0.00 0.00 0.00 50 1036.1
20260906144003 53 108 1.0 7.0 0.00 0.00 0.00 52 1035.8
20260906143903 51 118 1.0 8.0 0.00 0.00 0.00 56 1035.9
20260906143803 51 116 1.0 15.0 0.00 0.00 0.00 59 1036.1
20260906143703 50 121 2.0 15.0 0.00 0.00 0.00 60 1035.9
20260906143603 49 122 2.0 15.0 0.00 0.00 0.00 60 1036.1
20260906143503 49 126 4.0 15.0 0.00 0.00 0.00 60 1036.1
20260906143403 49 131 5.0 15.0 0.00 0.00 0.00 58 1036.2
20260906143303 49 130 8.0 15.0 0.00 0.00 0.00 57 1036.2
20260906143203 50 127 2.0 11.0 0.00 0.00 0.00 54 1036.2
20260906143103 49 137 4.0 11.0 0.00 0.00 0.00 54 1036.3
20260906143003 50 140 3.0 11.0 0.00 0.00 0.00 54 1036.3
20260906142903 51 128 3.0 11.0 0.00 0.00 0.00 55 1036.0
20260906142803 50 159 6.0 11.0 0.00 0.00 0.00 55 1036.1
20260906142703 51 152 2.0 6.0 0.00 0.00 0.00 55 1036.0
20260906142603 51 122 2.0 6.0 0.00 0.00 0.00 56 1036.1
20260906142517 51 115 2.0 8.0 0.00 0.00 0.00 56 1036.0
20260906142503 51 113 2.0 8.0 0.00 0.00 0.00 56 1036.0
20260906142403 51 113 2.0 8.0 0.00 0.00 0.00 56 1036.2
20260906142203 49 122 3.0 8.0 0.00 0.00 0.00 57 1036.2
20260906142103 49 132 3.0 8.0 0.00 0.00 0.00 57 1036.5
20260906142003 50 129 3.0 8.0 0.00 0.00 0.00 59 1036.2
20260906141903 49 150 2.0 6.0 0.00 0.00 0.00 60 1036.5
20260906141803 49 128 2.0 6.0 0.00 0.00 0.00 60 1036.3
20260906141703 49 98 3.0 6.0 0.00 0.00 0.00 59 1036.6
20260906141603 49 71 2.0 6.0 0.00 0.00 0.00 58 1036.5
20260906141503 50 68 1.0 8.0 0.00 0.00 0.00 59 1036.3
20260906141403 49 78 2.0 8.0 0.00 0.00 0.00 59 1036.3
20260906141303 49 68 3.0 8.0 0.00 0.00 0.00 59 1036.3
20260906141203 49 79 2.0 8.0 0.00 0.00 0.00 58 1036.3
20260906141117 49 90 3.0 11.0 0.00 0.00 0.00 58 1036.3
20260906141103 49 91 4.0 11.0 0.00 0.00 0.00 58 1036.3
20260906141003 49 102 4.0 11.0 0.00 0.00 0.00 58 1036.3
20260906140803 49 98 4.0 11.0 0.00 0.00 0.00 59 1036.4
20260906140703 49 102 4.0 11.0 0.00 0.00 0.00 59 1036.7
20260906140603 49 103 3.0 11.0 0.00 0.00 0.00 57 1036.4
20260906140503 49 118 6.0 11.0 0.00 0.00 0.00 57 1036.3
20260906140403 49 122 6.0 11.0 0.00 0.00 0.00 57 1036.6
20260906140303 49 134 2.0 7.0 0.00 0.00 0.00 59 1036.2
20260906140203 49 127 3.0 7.0 0.00 0.00 0.00 59 1036.3
20260906140003 49 116 2.0 7.0 0.00 0.00 0.00 59 1036.6
20260906135903 49 152 2.0 6.0 0.00 0.00 0.00 61 1036.4
20260906135803 49 179 2.0 6.0 0.00 0.00 0.00 60 1036.2
20260906135703 49 160 3.0 11.0 0.00 0.00 0.00 61 1036.5
20260906135603 49 156 2.0 11.0 0.00 0.00 0.00 60 1036.3
20260906135503 49 115 2.0 11.0 0.00 0.00 0.00 61 1036.5
20260906135403 49 95 3.0 11.0 0.00 0.00 0.00 60 1036.5
20260906135306 49 92 2.0 11.0 0.00 0.00 0.00 61 1036.3
20260906135203 49 92 6.0 11.0 0.00 0.00 0.00 60 1036.6
20260906135103 48 91 2.0 11.0 0.00 0.00 0.00 60 1036.6
20260906135003 48 91 2.0 11.0 0.00 0.00 0.00 62 1036.4
20260906134903 48 95 4.0 11.0 0.00 0.00 0.00 62 1036.5
20260906134803 48 116 4.0 11.0 0.00 0.00 0.00 62 1036.3
20260906134703 48 126 4.0 8.0 0.00 0.00 0.00 60 1036.5
20260906134603 48 139 3.0 7.0 0.00 0.00 0.00 60 1036.5
20260906134517 49 141 4.0 9.0 0.00 0.00 0.00 61 1036.4
20260906134503 49 147 4.0 9.0 0.00 0.00 0.00 61 1036.4
20260906134417 49 147 4.0 9.0 0.00 0.00 0.00 62 1036.4
20260906134403 49 141 4.0 9.0 0.00 0.00 0.00 62 1036.4
20260906134117 49 138 2.0 9.0 0.00 0.00 0.00 61 1036.4
20260906134103 49 137 2.0 9.0 0.00 0.00 0.00 61 1036.4
20260906134003 48 133 4.0 9.0 0.00 0.00 0.00 61 1036.5
20260906133803 48 163 2.0 11.0 0.00 0.00 0.00 62 1036.5
20260906133717 48 156 2.0 11.0 0.00 0.00 0.00 62 1036.4
20260906133703 48 149 2.0 11.0 0.00 0.00 0.00 62 1036.4
20260906133603 48 127 2.0 11.0 0.00 0.00 0.00 63 1036.4
20260906133403 47 118 6.0 13.0 0.00 0.00 0.00 63 1036.5
20260906133303 47 110 3.0 13.0 0.00 0.00 0.00 64 1036.4
20260906133103 47 138 5.0 13.0 0.00 0.00 0.00 64 1036.5
20260906133003 47 129 7.0 13.0 0.00 0.00 0.00 63 1036.6
20260906132903 47 135 4.0 9.0 0.00 0.00 0.00 64 1036.7
20260906132803 48 156 4.0 7.0 0.00 0.00 0.00 63 1036.4
20260906132717 48 149 2.0 8.0 0.00 0.00 0.00 63 1036.5
20260906132703 48 153 2.0 8.0 0.00 0.00 0.00 62 1036.4
20260906132603 48 150 4.0 8.0 0.00 0.00 0.00 62 1036.4
20260906132403 48 198 2.0 8.0 0.00 0.00 0.00 63 1036.5
20260906132306 47 165 3.0 8.0 0.00 0.00 0.00 63 1036.4
20260906132216 47 220 3.0 8.0 0.00 0.00 0.00 63 1036.5
20260906132103 47 145 2.0 8.0 0.00 0.00 0.00 63 1036.5
20260906131903 48 126 2.0 8.0 0.00 0.00 0.00 64 1036.6
20260906131803 47 117 4.0 8.0 0.00 0.00 0.00 63 1036.6
20260906131703 48 126 2.0 8.0 0.00 0.00 0.00 63 1036.4
20260906131603 48 120 2.0 8.0 0.00 0.00 0.00 64 1036.4
20260906131503 48 105 3.0 6.0 0.00 0.00 0.00 65 1036.4
20260906131403 47 108 2.0 8.0 0.00 0.00 0.00 65 1036.4
20260906131303 47 123 3.0 9.0 0.00 0.00 0.00 66 1036.4
20260906131216 47 130 3.0 9.0 0.00 0.00 0.00 67 1036.5
20260906131203 47 129 3.0 9.0 0.00 0.00 0.00 67 1036.5
20260906131103 47 138 4.0 9.0 0.00 0.00 0.00 67 1036.4
20260906130903 46 140 5.0 9.0 0.00 0.00 0.00 67 1036.5
20260906130803 46 138 6.0 9.0 0.00 0.00 0.00 67 1036.6
20260906130603 47 111 4.0 9.0 0.00 0.00 0.00 67 1036.2
20260906130503 47 99 4.0 9.0 0.00 0.00 0.00 66 1036.5
20260906130403 47 92 5.0 9.0 0.00 0.00 0.00 66 1036.5
20260906130303 47 81 2.0 9.0 0.00 0.00 0.00 67 1036.5
20260906130203 47 81 3.0 9.0 0.00 0.00 0.00 67 1036.4
20260906130117 47 81 2.0 9.0 0.00 0.00 0.00 67 1036.3
20260906130103 47 83 2.0 9.0 0.00 0.00 0.00 67 1036.3
20260906130018 47 93 3.0 9.0 0.00 0.00 0.00 67 1036.4
20260906130004 47 97 3.0 9.0 0.00 0.00 0.00 67 1036.4
20260906125703 46 103 5.0 11.0 0.00 0.00 0.00 68 1036.3
20260906125603 47 107 2.0 11.0 0.00 0.00 0.00 67 1036.1
20260906125503 47 97 2.0 11.0 0.00 0.00 0.00 69 1036.2
20260906125403 47 97 3.0 11.0 0.00 0.00 0.00 69 1036.1
20260906125306 46 89 5.0 11.0 0.00 0.00 0.00 69 1036.3
20260906125203 46 93 3.0 11.0 0.00 0.00 0.00 69 1036.2
20260906125103 47 81 2.0 11.0 0.00 0.00 0.00 69 1036.3
20260906125003 46 74 1.0 11.0 0.00 0.00 0.00 69 1036.2
20260906124903 46 71 3.0 11.0 0.00 0.00 0.00 69 1036.4
20260906124817 46 74 5.0 11.0 0.00 0.00 0.00 69 1036.2
20260906124803 46 77 5.0 11.0 0.00 0.00 0.00 69 1036.2
20260906124703 46 70 2.0 11.0 0.00 0.00 0.00 70 1036.1
20260906124503 45 80 4.0 11.0 0.00 0.00 0.00 69 1036.4
20260906124403 45 89 7.0 11.0 0.00 0.00 0.00 68 1036.3
20260906124303 46 91 2.0 9.0 0.00 0.00 0.00 69 1036.2
20260906124203 46 101 2.0 11.0 0.00 0.00 0.00 69 1036.4
20260906124103 46 92 3.0 11.0 0.00 0.00 0.00 69 1036.3
20260906124008 46 90 4.0 11.0 0.00 0.00 0.00 68 1036.3
20260906123903 46 101 2.0 11.0 0.00 0.00 0.00 69 1036.2
20260906123803 45 95 3.0 11.0 0.00 0.00 0.00 69 1036.4
20260906123703 45 83 7.0 11.0 0.00 0.00 0.00 68 1036.2
20260906123603 46 77 7.0 11.0 0.00 0.00 0.00 68 1036.2
20260906123518 46 98 4.0 8.0 0.00 0.00 0.00 68 1036.5
20260906123503 46 107 4.0 8.0 0.00 0.00 0.00 68 1035.9
20260906123417 47 89 2.0 8.0 0.00 0.00 0.00 69 1036.2
20260906123117 46 93 2.0 9.0 0.00 0.00 0.00 70 1036.0
20260906123103 46 94 2.0 9.0 0.00 0.00 0.00 70 1036.2
20260906123003 45 84 4.0 9.0 0.00 0.00 0.00 69 1035.9
20260906122816 46 55 4.0 9.0 0.00 0.00 0.00 69 1036.1
20260906122703 46 39 1.0 8.0 0.00 0.00 0.00 70 1036.1
20260906122503 45 110 4.0 8.0 0.00 0.00 0.00 70 1036.0
20260906122403 45 185 3.0 8.0 0.00 0.00 0.00 70 1036.1
20260906122306 45 213 4.0 8.0 0.00 0.00 0.00 71 1036.2
20260906122203 45 183 2.0 6.0 0.00 0.00 0.00 71 1036.2
20260906122103 45 184 2.0 9.0 0.00 0.00 0.00 72 1036.2
20260906122003 45 193 2.0 9.0 0.00 0.00 0.00 72 1036.0
20260906121918 45 176 3.0 9.0 0.00 0.00 0.00 72 1036.0
20260906121903 45 170 2.0 9.0 0.00 0.00 0.00 73 1036.0
20260906121803 45 183 1.0 9.0 0.00 0.00 0.00 73 1036.3
20260906121603 45 152 4.0 9.0 0.00 0.00 0.00 73 1036.0
20260906121503 45 126 2.0 6.0 0.00 0.00 0.00 75 1036.2
20260906121403 44 125 1.0 6.0 0.00 0.00 0.00 75 1036.2
20260906121303 44 127 2.0 6.0 0.00 0.00 0.00 74 1035.9
20260906121203 44 141 2.0 7.0 0.00 0.00 0.00 75 1036.3
20260906121103 44 135 3.0 7.0 0.00 0.00 0.00 75 1036.2
20260906121003 44 144 3.0 7.0 0.00 0.00 0.00 75 1036.2
20260906120903 44 191 2.0 7.0 0.00 0.00 0.00 76 1035.8
20260906120803 44 197 2.0 7.0 0.00 0.00 0.00 76 1036.1
20260906120703 44 152 4.0 9.0 0.00 0.00 0.00 76 1036.1
20260906120603 44 162 2.0 9.0 0.00 0.00 0.00 76 1036.2
20260906120503 44 137 2.0 9.0 0.00 0.00 0.00 76 1035.8
20260906120417 43 142 2.0 9.0 0.00 0.00 0.00 76 1035.9
20260906120303 43 108 6.0 9.0 0.00 0.00 0.00 76 1036.2
20260906120003 44 113 2.0 8.0 0.00 0.00 0.00 77 1036.0
20260906115903 43 98 4.0 8.0 0.00 0.00 0.00 77 1036.0
20260906115803 43 100 5.0 8.0 0.00 0.00 0.00 77 1036.1
20260906115703 44 87 1.0 8.0 0.00 0.00 0.00 78 1036.2
20260906115617 43 76 2.0 8.0 0.00 0.00 0.00 78 1036.0
20260906115603 43 75 2.0 8.0 0.00 0.00 0.00 78 1036.0
20260906115503 43 74 3.0 8.0 0.00 0.00 0.00 78 1036.1
20260906115317 43 58 4.0 8.0 0.00 0.00 0.00 78 1036.1
20260906115306 43 78 4.0 8.0 0.00 0.00 0.00 78 1036.1
20260906115203 43 100 5.0 8.0 0.00 0.00 0.00 78 1036.1
20260906115003 43 110 1.0 4.0 0.00 0.00 0.00 79 1036.1
20260906114903 43 105 1.0 4.0 0.00 0.00 0.00 79 1036.3
20260906114803 43 105 1.0 4.0 0.00 0.00 0.00 79 1035.9
20260906114703 43 101 1.0 4.0 0.00 0.00 0.00 80 1036.0
20260906114603 43 104 2.0 4.0 0.00 0.00 0.00 80 1036.0
20260906114503 43 87 2.0 4.0 0.00 0.00 0.00 80 1036.0
20260906114403 43 107 1.0 4.0 0.00 0.00 0.00 80 1036.1
20260906114303 43 184 2.0 4.0 0.00 0.00 0.00 80 1036.1
20260906114203 42 171 3.0 4.0 0.00 0.00 0.00 80 1036.1
20260906114103 43 181 1.0 4.0 0.00 0.00 0.00 81 1035.9
20260906114003 43 179 1.0 4.0 0.00 0.00 0.00 81 1036.0
20260906113918 43 165 0.0 4.0 0.00 0.00 0.00 81 1036.0
20260906113903 42 166 1.0 6.0 0.00 0.00 0.00 82 1036.1
20260906113803 42 169 2.0 6.0 0.00 0.00 0.00 82 1036.0
20260906113617 42 171 2.0 6.0 0.00 0.00 0.00 82 1036.0
20260906113603 42 168 2.0 6.0 0.00 0.00 0.00 82 1036.0
20260906113503 41 157 3.0 6.0 0.00 0.00 0.00 82 1036.1
20260906113303 42 174 2.0 4.0 0.00 0.00 0.00 82 1036.1
20260906113203 42 165 2.0 4.0 0.00 0.00 0.00 82 1036.0
20260906113103 42 177 1.0 4.0 0.00 0.00 0.00 82 1035.9
20260906113003 41 187 2.0 4.0 0.00 0.00 0.00 82 1035.8
20260906112903 41 176 2.0 4.0 0.00 0.00 0.00 83 1035.7
20260906112803 42 191 1.0 2.0 0.00 0.00 0.00 83 1035.7
20260906112717 41 150 1.0 4.0 0.00 0.00 0.00 83 1036.0
20260906112703 41 150 1.0 4.0 0.00 0.00 0.00 83 1035.8
20260906112603 41 145 2.0 4.0 0.00 0.00 0.00 83 1035.9
20260906112403 41 176 2.0 4.0 0.00 0.00 0.00 83 1035.8
20260906112306 41 175 2.0 6.0 0.00 0.00 0.00 84 1035.9
20260906112203 41 174 1.0 6.0 0.00 0.00 0.00 84 1035.9
20260906112103 41 179 3.0 6.0 0.00 0.00 0.00 84 1035.9
20260906112017 41 182 2.0 6.0 0.00 0.00 0.00 84 1035.6
20260906112003 41 181 2.0 6.0 0.00 0.00 0.00 84 1035.6
20260906111903 41 165 2.0 6.0 0.00 0.00 0.00 84 1035.7
20260906111703 41 163 1.0 4.0 0.00 0.00 0.00 84 1035.7
20260906111603 41 177 2.0 4.0 0.00 0.00 0.00 84 1035.7
20260906111503 41 153 1.0 7.0 0.00 0.00 0.00 84 1035.8
20260906111403 40 182 2.0 7.0 0.00 0.00 0.00 84 1035.8
20260906111303 40 190 2.0 7.0 0.00 0.00 0.00 85 1035.8
20260906111203 40 202 2.0 7.0 0.00 0.00 0.00 85 1035.9
20260906111103 40 187 2.0 7.0 0.00 0.00 0.00 84 1035.8
20260906111003 40 198 3.0 7.0 0.00 0.00 0.00 85 1035.7
20260906110917 40 160 3.0 6.0 0.00 0.00 0.00 85 1035.6
20260906110903 40 161 3.0 6.0 0.00 0.00 0.00 85 1035.6
20260906110803 40 162 2.0 4.0 0.00 0.00 0.00 85 1035.7
20260906110619 40 162 2.0 4.0 0.00 0.00 0.00 85 1035.6
20260906110603 40 165 2.0 4.0 0.00 0.00 0.00 85 1035.5
20260906110503 40 178 2.0 4.0 0.00 0.00 0.00 85 1035.4
20260906110303 40 213 2.0 4.0 0.00 0.00 0.00 85 1035.6
20260906110203 40 221 2.0 4.0 0.00 0.00 0.00 85 1035.4
20260906110103 40 224 1.0 4.0 0.00 0.00 0.00 85 1035.7
20260906110003 40 198 2.0 4.0 0.00 0.00 0.00 85 1035.5
20260906105903 40 196 1.0 4.0 0.00 0.00 0.00 85 1035.6
20260906105803 40 181 1.0 4.0 0.00 0.00 0.00 85 1035.5
20260906105703 40 171 1.0 4.0 0.00 0.00 0.00 86 1035.5
20260906105603 40 168 2.0 4.0 0.00 0.00 0.00 86 1035.8
20260906105503 40 160 2.0 4.0 0.00 0.00 0.00 86 1035.7
20260906105403 40 159 2.0 4.0 0.00 0.00 0.00 86 1035.4
20260906105306 40 147 1.0 4.0 0.00 0.00 0.00 86 1035.5
20260906105208 40 143 1.0 4.0 0.00 0.00 0.00 86 1035.6
20260906105103 39 148 1.0 4.0 0.00 0.00 0.00 86 1035.5
20260906105003 39 158 2.0 4.0 0.00 0.00 0.00 86 1035.1
20260906104903 39 157 2.0 4.0 0.00 0.00 0.00 86 1035.5
20260906104803 39 162 2.0 4.0 0.00 0.00 0.00 86 1035.5
20260906104703 39 159 1.0 4.0 0.00 0.00 0.00 86 1035.5
20260906104603 39 158 2.0 6.0 0.00 0.00 0.00 86 1035.5
20260906104503 39 143 2.0 7.0 0.00 0.00 0.00 86 1035.6
20260906104303 39 118 2.0 7.0 0.00 0.00 0.00 86 1035.1
20260906104203 39 127 2.0 7.0 0.00 0.00 0.00 87 1035.5
20260906104103 39 134 3.0 7.0 0.00 0.00 0.00 87 1035.1
20260906104003 39 162 2.0 7.0 0.00 0.00 0.00 87 1035.5
20260906103903 38 176 2.0 7.0 0.00 0.00 0.00 87 1035.5
20260906103803 39 188 1.0 4.0 0.00 0.00 0.00 87 1035.3
20260906103703 38 174 2.0 4.0 0.00 0.00 0.00 87 1035.3
20260906103603 38 174 2.0 4.0 0.00 0.00 0.00 87 1035.4
20260906103403 38 201 2.0 6.0 0.00 0.00 0.00 87 1035.3
20260906103303 38 211 2.0 6.0 0.00 0.00 0.00 87 1035.4
20260906103203 38 222 1.0 6.0 0.00 0.00 0.00 87 1035.4
20260906103118 38 234 2.0 6.0 0.00 0.00 0.00 87 1035.2
20260906103103 38 233 3.0 6.0 0.00 0.00 0.00 87 1035.4
20260906103003 38 212 2.0 6.0 0.00 0.00 0.00 87 1035.1
20260906102703 38 212 2.0 6.0 0.00 0.00 0.00 87 1035.3
20260906102603 38 196 3.0 8.0 0.00 0.00 0.00 87 1035.1
20260906102503 38 179 2.0 8.0 0.00 0.00 0.00 87 1035.2
20260906102306 38 174 2.0 8.0 0.00 0.00 0.00 87 1035.2
20260906102203 38 149 2.0 8.0 0.00 0.00 0.00 87 1035.1
20260906102103 38 147 3.0 8.0 0.00 0.00 0.00 86 1035.3
20260906102003 38 143 4.0 8.0 0.00 0.00 0.00 87 1035.0
20260906101903 38 129 2.0 8.0 0.00 0.00 0.00 86 1035.3
20260906101803 38 126 2.0 8.0 0.00 0.00 0.00 86 1035.2
20260906101703 38 144 3.0 7.0 0.00 0.00 0.00 86 1035.3
20260906101617 38 141 3.0 8.0 0.00 0.00 0.00 86 1035.4
20260906101603 38 139 3.0 8.0 0.00 0.00 0.00 86 1035.4
20260906101518 38 142 3.0 8.0 0.00 0.00 0.00 86 1035.3
20260906101503 38 141 3.0 8.0 0.00 0.00 0.00 86 1035.3
20260906101317 38 134 3.0 8.0 0.00 0.00 0.00 86 1035.2
20260906101203 38 119 2.0 8.0 0.00 0.00 0.00 86 1035.1
20260906101003 39 112 2.0 7.0 0.00 0.00 0.00 86 1035.0
20260906100903 39 114 3.0 7.0 0.00 0.00 0.00 86 1035.2
20260906100803 39 118 3.0 7.0 0.00 0.00 0.00 86 1035.2
20260906100703 39 129 4.0 7.0 0.00 0.00 0.00 86 1035.3
20260906100603 39 126 1.0 6.0 0.00 0.00 0.00 86 1034.9
20260906100503 39 126 2.0 6.0 0.00 0.00 0.00 86 1035.0
20260906100418 39 135 2.0 6.0 0.00 0.00 0.00 86 1035.2
20260906100407 39 138 2.0 6.0 0.00 0.00 0.00 86 1035.2
20260906100303 39 166 1.0 6.0 0.00 0.00 0.00 86 1035.2
20260906100217 39 159 2.0 6.0 0.00 0.00 0.00 86 1035.2
20260906100103 39 179 2.0 6.0 0.00 0.00 0.00 86 1035.2
20260906100019 39 197 1.0 4.0 0.00 0.00 0.00 86 1035.2
20260906095903 39 184 2.0 6.0 0.00 0.00 0.00 86 1035.0
20260906095718 39 196 2.0 6.0 0.00 0.00 0.00 86 1034.9
20260906095703 39 199 2.0 6.0 0.00 0.00 0.00 86 1034.9
20260906095603 39 200 2.0 6.0 0.00 0.00 0.00 86 1034.9
20260906095403 39 161 2.0 8.0 0.00 0.00 0.00 86 1034.9
20260906095306 39 143 2.0 8.0 0.00 0.00 0.00 86 1035.1
20260906095103 39 143 2.0 8.0 0.00 0.00 0.00 86 1035.1
20260906095003 39 179 3.0 8.0 0.00 0.00 0.00 86 1035.0
20260906094903 39 243 2.0 7.0 0.00 0.00 0.00 86 1035.0
20260906094803 39 219 3.0 7.0 0.00 0.00 0.00 86 1035.1
20260906094703 39 197 2.0 7.0 0.00 0.00 0.00 86 1035.1
20260906094604 39 203 1.0 7.0 0.00 0.00 0.00 86 1034.8
20260906094504 39 159 3.0 7.0 0.00 0.00 0.00 86 1035.2
20260906094403 39 146 2.0 6.0 0.00 0.00 0.00 86 1035.0
20260906094316 39 152 2.0 6.0 0.00 0.00 0.00 86 1034.8
20260906094303 39 156 2.0 6.0 0.00 0.00 0.00 86 1034.9
20260906094217 39 155 2.0 6.0 0.00 0.00 0.00 86 1034.8
20260906093903 39 201 1.0 4.0 0.00 0.00 0.00 86 1034.8
20260906093803 39 153 1.0 4.0 0.00 0.00 0.00 86 1034.6
20260906093703 39 131 1.0 4.0 0.00 0.00 0.00 86 1034.6
20260906093603 39 153 1.0 4.0 0.00 0.00 0.00 86 1034.8
20260906093503 39 151 1.0 6.0 0.00 0.00 0.00 86 1034.5
20260906093403 39 158 2.0 6.0 0.00 0.00 0.00 86 1034.7
20260906093303 39 176 2.0 6.0 0.00 0.00 0.00 86 1034.7
20260906093203 39 199 1.0 6.0 0.00 0.00 0.00 86 1034.5
20260906093103 39 170 2.0 6.0 0.00 0.00 0.00 86 1034.7
20260906093003 39 175 4.0 6.0 0.00 0.00 0.00 86 1034.6
20260906092917 39 178 2.0 6.0 0.00 0.00 0.00 86 1034.6
20260906092903 39 166 2.0 6.0 0.00 0.00 0.00 86 1034.6
20260906092803 39 152 2.0 6.0 0.00 0.00 0.00 86 1034.6
20260906092718 39 138 2.0 6.0 0.00 0.00 0.00 86 1034.8
20260906092603 39 164 1.0 4.0 0.00 0.00 0.00 86 1034.5
20260906092517 39 161 2.0 4.0 0.00 0.00 0.00 86 1034.6
20260906092203 39 184 2.0 7.0 0.00 0.00 0.00 86 1034.5
20260906092103 39 169 2.0 7.0 0.00 0.00 0.00 86 1034.4
20260906092003 39 172 2.0 7.0 0.00 0.00 0.00 86 1034.3
20260906091917 39 171 3.0 7.0 0.00 0.00 0.00 86 1034.5
20260906091903 39 165 2.0 7.0 0.00 0.00 0.00 86 1034.2
20260906091803 39 166 3.0 7.0 0.00 0.00 0.00 86 1034.5
20260906091718 39 162 2.0 7.0 0.00 0.00 0.00 86 1034.2
20260906091603 39 176 2.0 7.0 0.00 0.00 0.00 86 1034.3
20260906091403 39 144 3.0 7.0 0.00 0.00 0.00 86 1034.2
20260906091303 39 134 3.0 9.0 0.00 0.00 0.00 86 1034.3
20260906091203 39 110 3.0 9.0 0.00 0.00 0.00 86 1034.4
20260906091103 39 120 2.0 9.0 0.00 0.00 0.00 86 1034.4
20260906091003 39 124 2.0 9.0 0.00 0.00 0.00 86 1034.2
20260906090903 39 151 4.0 9.0 0.00 0.00 0.00 86 1034.2
20260906090703 39 183 4.0 8.0 0.00 0.00 0.00 86 1034.1
20260906090603 39 174 3.0 7.0 0.00 0.00 0.00 86 1034.1
20260906090503 39 172 4.0 8.0 0.00 0.00 0.00 86 1034.5
20260906090418 39 164 4.0 8.0 0.00 0.00 0.00 86 1034.2
20260906090303 40 153 2.0 8.0 0.00 0.00 0.00 86 1034.3
20260906090217 40 148 2.0 8.0 0.00 0.00 0.00 86 1034.1
20260906090103 40 141 2.0 8.0 0.00 0.00 0.00 86 1034.2
20260906085903 40 130 1.0 4.0 0.00 0.00 0.00 86 1034.1
20260906085803 40 143 2.0 7.0 0.00 0.00 0.00 86 1034.2
20260906085703 40 142 2.0 7.0 0.00 0.00 0.00 86 1034.0
20260906085603 40 145 2.0 7.0 0.00 0.00 0.00 86 1034.2
20260906085503 40 138 2.0 7.0 0.00 0.00 0.00 86 1034.1
20260906085403 40 131 2.0 8.0 0.00 0.00 0.00 86 1034.3
20260906085306 40 137 3.0 8.0 0.00 0.00 0.00 86 1034.2
20260906085217 40 152 2.0 8.0 0.00 0.00 0.00 86 1034.3
20260906085203 40 158 2.0 8.0 0.00 0.00 0.00 86 1034.3
20260906085103 40 167 3.0 8.0 0.00 0.00 0.00 86 1034.2
20260906084903 40 189 4.0 8.0 0.00 0.00 0.00 86 1034.4
20260906084803 40 172 3.0 8.0 0.00 0.00 0.00 86 1034.2
20260906084703 40 159 3.0 8.0 0.00 0.00 0.00 86 1034.2
20260906084603 40 138 3.0 8.0 0.00 0.00 0.00 86 1034.3
20260906084503 40 164 3.0 8.0 0.00 0.00 0.00 86 1034.2
20260906084403 40 143 1.0 8.0 0.00 0.00 0.00 86 1034.3
20260906084303 40 143 2.0 7.0 0.00 0.00 0.00 86 1034.2
20260906084203 40 143 2.0 7.0 0.00 0.00 0.00 86 1034.2
20260906084117 40 147 2.0 7.0 0.00 0.00 0.00 86 1034.2
20260906084103 40 149 2.0 7.0 0.00 0.00 0.00 86 1034.2
20260906084018 40 162 4.0 8.0 0.00 0.00 0.00 86 1034.3
20260906084003 40 168 4.0 8.0 0.00 0.00 0.00 86 1034.3
20260906083703 40 167 2.0 8.0 0.00 0.00 0.00 86 1034.2
20260906083603 40 161 3.0 8.0 0.00 0.00 0.00 86 1034.1
20260906083503 40 149 4.0 7.0 0.00 0.00 0.00 86 1034.0
20260906083403 40 156 2.0 7.0 0.00 0.00 0.00 86 1034.1
20260906083303 40 150 3.0 7.0 0.00 0.00 0.00 86 1034.1
20260906083203 40 152 4.0 7.0 0.00 0.00 0.00 86 1034.0
20260906083103 40 139 2.0 7.0 0.00 0.00 0.00 85 1034.2
20260906083005 40 139 2.0 8.0 0.00 0.00 0.00 86 1034.1
20260906082903 40 145 2.0 8.0 0.00 0.00 0.00 85 1033.9
20260906082803 40 127 2.0 11.0 0.00 0.00 0.00 85 1034.1
20260906082703 40 143 2.0 11.0 0.00 0.00 0.00 85 1034.0
20260906082605 40 164 3.0 11.0 0.00 0.00 0.00 85 1034.1
20260906082503 40 208 3.0 11.0 0.00 0.00 0.00 85 1033.9
20260906082306 40 153 2.0 6.0 0.00 0.00 0.00 85 1034.2
20260906082204 40 142 2.0 8.0 0.00 0.00 0.00 85 1034.1
20260906082117 40 153 2.0 8.0 0.00 0.00 0.00 85 1034.1
20260906082103 40 150 2.0 8.0 0.00 0.00 0.00 85 1034.1
20260906081803 40 152 2.0 8.0 0.00 0.00 0.00 85 1033.9
20260906081705 40 153 4.0 8.0 0.00 0.00 0.00 85 1034.0
20260906081603 40 142 4.0 8.0 0.00 0.00 0.00 85 1034.1
20260906081505 40 151 3.0 7.0 0.00 0.00 0.00 85 1034.0
20260906081411 40 148 3.0 7.0 0.00 0.00 0.00 85 1034.0
20260906081303 40 149 2.0 7.0 0.00 0.00 0.00 85 1033.8
20260906081203 40 161 4.0 7.0 0.00 0.00 0.00 85 1034.1
20260906081103 40 177 3.0 7.0 0.00 0.00 0.00 85 1034.3
20260906081003 40 202 2.0 7.0 0.00 0.00 0.00 85 1033.7
20260906080904 40 219 1.0 7.0 0.00 0.00 0.00 85 1034.0
20260906080803 40 189 4.0 7.0 0.00 0.00 0.00 85 1033.9
20260906080703 40 190 2.0 6.0 0.00 0.00 0.00 85 1033.9
20260906080603 40 201 2.0 8.0 0.00 0.00 0.00 85 1033.8
20260906080503 40 200 3.0 8.0 0.00 0.00 0.00 85 1034.2
20260906080318 40 227 2.0 8.0 0.00 0.00 0.00 85 1034.2
20260906080303 40 230 2.0 8.0 0.00 0.00 0.00 85 1033.9
20260906080203 40 219 2.0 8.0 0.00 0.00 0.00 85 1034.0
20260906080005 40 201 3.0 7.0 0.00 0.00 0.00 85 1034.1
20260906075903 40 198 1.0 7.0 0.00 0.00 0.00 85 1033.9
20260906075803 40 195 2.0 7.0 0.00 0.00 0.00 85 1033.8
20260906075703 40 189 2.0 7.0 0.00 0.00 0.00 85 1033.9
20260906075503 40 216 2.0 7.0 0.00 0.00 0.00 85 1034.1
20260906075403 40 209 2.0 7.0 0.00 0.00 0.00 85 1033.9
20260906075306 40 200 2.0 7.0 0.00 0.00 0.00 85 1034.0
20260906075203 40 194 3.0 7.0 0.00 0.00 0.00 85 1034.0
20260906075103 41 196 2.0 7.0 0.00 0.00 0.00 85 1033.9
20260906075004 41 178 2.0 7.0 0.00 0.00 0.00 85 1033.9
20260906074903 41 178 2.0 6.0 0.00 0.00 0.00 85 1034.0
20260906074703 41 203 3.0 6.0 0.00 0.00 0.00 85 1033.8
20260906074603 41 195 2.0 4.0 0.00 0.00 0.00 85 1034.0
20260906074503 41 240 1.0 4.0 0.00 0.00 0.00 84 1034.0
20260906074303 41 258 2.0 7.0 0.00 0.00 0.00 84 1034.0
20260906074203 41 275 2.0 7.0 0.00 0.00 0.00 84 1034.0
20260906074117 41 262 1.0 7.0 0.00 0.00 0.00 84 1033.9
20260906074103 41 254 1.0 7.0 0.00 0.00 0.00 84 1033.9
20260906074003 41 228 2.0 7.0 0.00 0.00 0.00 84 1034.0
20260906073803 41 209 4.0 7.0 0.00 0.00 0.00 84 1033.9
20260906073703 41 164 3.0 7.0 0.00 0.00 0.00 84 1033.8
20260906073603 41 142 2.0 6.0 0.00 0.00 0.00 84 1033.9
20260906073503 41 149 1.0 7.0 0.00 0.00 0.00 84 1034.0
20260906073403 41 144 2.0 7.0 0.00 0.00 0.00 84 1034.0
20260906073303 41 145 2.0 7.0 0.00 0.00 0.00 84 1033.9
20260906073203 41 143 2.0 7.0 0.00 0.00 0.00 84 1034.0
20260906073103 41 144 4.0 8.0 0.00 0.00 0.00 84 1034.0
20260906073003 41 139 4.0 8.0 0.00 0.00 0.00 84 1034.0
20260906072918 41 153 2.0 8.0 0.00 0.00 0.00 84 1034.0
20260906072903 41 154 2.0 8.0 0.00 0.00 0.00 84 1034.0
20260906072803 41 147 2.0 8.0 0.00 0.00 0.00 84 1034.0
20260906072603 41 159 4.0 9.0 0.00 0.00 0.00 84 1034.1
20260906072504 41 148 2.0 9.0 0.00 0.00 0.00 84 1033.8
20260906072403 41 142 2.0 9.0 0.00 0.00 0.00 84 1034.0
20260906072305 41 143 4.0 9.0 0.00 0.00 0.00 84 1034.1
20260906072203 41 146 2.0 9.0 0.00 0.00 0.00 84 1033.9
20260906072103 41 163 4.0 9.0 0.00 0.00 0.00 84 1034.0
20260906072003 41 167 3.0 8.0 0.00 0.00 0.00 84 1034.0
20260906071903 41 192 3.0 8.0 0.00 0.00 0.00 84 1033.9
20260906071803 41 215 2.0 8.0 0.00 0.00 0.00 84 1034.0
20260906071703 41 207 4.0 8.0 0.00 0.00 0.00 83 1034.0
20260906071503 41 239 3.0 9.0 0.00 0.00 0.00 83 1034.2
20260906071403 41 273 3.0 9.0 0.00 0.00 0.00 83 1034.1
20260906071303 41 316 3.0 9.0 0.00 0.00 0.00 83 1033.9
20260906071203 41 234 2.0 9.0 0.00 0.00 0.00 83 1034.0
20260906071117 41 220 2.0 9.0 0.00 0.00 0.00 83 1034.1
20260906071103 41 236 2.0 9.0 0.00 0.00 0.00 83 1034.1
20260906071003 41 227 3.0 9.0 0.00 0.00 0.00 83 1034.1
20260906070803 41 230 2.0 9.0 0.00 0.00 0.00 83 1034.0
20260906070703 41 228 2.0 9.0 0.00 0.00 0.00 83 1033.9
20260906070603 41 224 5.0 9.0 0.00 0.00 0.00 83 1034.2
20260906070503 41 184 4.0 9.0 0.00 0.00 0.00 83 1033.9
20260906070403 41 174 2.0 8.0 0.00 0.00 0.00 83 1033.9
20260906070303 41 145 2.0 8.0 0.00 0.00 0.00 83 1033.8
20260906070203 41 144 1.0 8.0 0.00 0.00 0.00 83 1033.9
20260906070004 41 138 4.0 8.0 0.00 0.00 0.00 83 1033.9
20260906065803 42 153 3.0 11.0 0.00 0.00 0.00 83 1033.8
20260906065717 42 161 2.0 11.0 0.00 0.00 0.00 83 1033.8
20260906065703 42 162 2.0 11.0 0.00 0.00 0.00 83 1033.8
20260906065603 42 154 0.0 11.0 0.00 0.00 0.00 83 1034.1
20260906065403 42 167 6.0 11.0 0.00 0.00 0.00 83 1033.9
20260906065305 42 148 3.0 11.0 0.00 0.00 0.00 83 1034.0
20260906065203 42 146 1.0 11.0 0.00 0.00 0.00 83 1033.9
20260906065103 42 145 3.0 11.0 0.00 0.00 0.00 83 1033.9
20260906065003 42 135 4.0 11.0 0.00 0.00 0.00 83 1033.9
20260906064903 42 156 4.0 11.0 0.00 0.00 0.00 83 1034.0
20260906064803 42 148 2.0 4.0 0.00 0.00 0.00 83 1033.9
20260906064717 42 142 2.0 4.0 0.00 0.00 0.00 83 1033.9
20260906064703 42 151 2.0 9.0 0.00 0.00 0.00 83 1033.8
20260906064603 42 182 2.0 9.0 0.00 0.00 0.00 83 1034.0
20260906064403 42 177 2.0 9.0 0.00 0.00 0.00 83 1033.7
20260906064303 42 167 2.0 11.0 0.00 0.00 0.00 82 1033.8
20260906064203 42 160 4.0 11.0 0.00 0.00 0.00 82 1033.7
20260906064103 42 137 3.0 11.0 0.00 0.00 0.00 82 1033.6
20260906064017 42 122 3.0 11.0 0.00 0.00 0.00 82 1034.0
20260906064003 42 118 3.0 11.0 0.00 0.00 0.00 82 1034.0
20260906063903 42 109 4.0 11.0 0.00 0.00 0.00 82 1033.9
20260906063703 42 130 2.0 7.0 0.00 0.00 0.00 82 1034.0
20260906063603 42 150 4.0 7.0 0.00 0.00 0.00 82 1034.0
20260906063503 42 152 0.0 11.0 0.00 0.00 0.00 82 1033.8
20260906063403 42 146 2.0 11.0 0.00 0.00 0.00 82 1033.7
20260906063317 42 141 2.0 11.0 0.00 0.00 0.00 82 1033.8
20260906063303 42 144 2.0 11.0 0.00 0.00 0.00 82 1033.8
20260906063203 42 152 2.0 11.0 0.00 0.00 0.00 82 1033.7
20260906063003 42 147 4.0 11.0 0.00 0.00 0.00 82 1033.6
20260906062903 42 136 4.0 11.0 0.00 0.00 0.00 82 1033.7
20260906062803 42 141 2.0 7.0 0.00 0.00 0.00 82 1033.9
20260906062703 42 127 4.0 7.0 0.00 0.00 0.00 82 1033.8
20260906062603 42 118 3.0 7.0 0.00 0.00 0.00 82 1033.6
20260906062518 42 127 3.0 7.0 0.00 0.00 0.00 82 1033.9
20260906062503 42 129 3.0 7.0 0.00 0.00 0.00 82 1033.9
20260906062403 42 167 3.0 9.0 0.00 0.00 0.00 82 1033.7
20260906062203 42 150 2.0 13.0 0.00 0.00 0.00 82 1033.7
20260906062103 42 158 1.0 13.0 0.00 0.00 0.00 82 1034.0
20260906062003 42 189 2.0 13.0 0.00 0.00 0.00 83 1033.7
20260906061903 42 162 3.0 13.0 0.00 0.00 0.00 83 1033.8
20260906061803 42 195 3.0 7.0 0.00 0.00 0.00 83 1033.8
20260906061703 42 187 2.0 7.0 0.00 0.00 0.00 83 1033.9
20260906061603 42 211 2.0 9.0 0.00 0.00 0.00 83 1033.7
20260906061518 42 198 3.0 9.0 0.00 0.00 0.00 83 1033.9
20260906061403 42 208 2.0 9.0 0.00 0.00 0.00 83 1033.8
20260906061218 42 219 2.0 9.0 0.00 0.00 0.00 82 1033.9
20260906061203 42 218 2.0 9.0 0.00 0.00 0.00 82 1033.9
20260906061103 42 190 4.0 8.0 0.00 0.00 0.00 83 1034.0
20260906060903 42 189 3.0 8.0 0.00 0.00 0.00 82 1033.9
20260906060803 42 154 3.0 8.0 0.00 0.00 0.00 83 1033.9
20260906060703 42 141 3.0 11.0 0.00 0.00 0.00 82 1033.9
20260906060603 42 156 1.0 11.0 0.00 0.00 0.00 82 1033.7
20260906060503 42 153 1.0 11.0 0.00 0.00 0.00 82 1033.5
20260906060416 42 153 2.0 11.0 0.00 0.00 0.00 82 1033.6
20260906060303 42 174 3.0 11.0 0.00 0.00 0.00 82 1033.7
20260906060103 43 218 2.0 9.0 0.00 0.00 0.00 82 1033.8
20260906060004 43 219 3.0 9.0 0.00 0.00 0.00 82 1033.7
20260906055903 43 195 2.0 9.0 0.00 0.00 0.00 82 1033.6
20260906055803 43 156 2.0 9.0 0.00 0.00 0.00 82 1033.7
20260906055703 43 163 3.0 13.0 0.00 0.00 0.00 82 1033.6
20260906055603 43 164 5.0 13.0 0.00 0.00 0.00 82 1033.7
20260906055503 43 179 2.0 13.0 0.00 0.00 0.00 82 1033.7
20260906055403 43 192 2.0 13.0 0.00 0.00 0.00 82 1033.8
20260906055317 43 205 3.0 13.0 0.00 0.00 0.00 82 1033.5
20260906055306 43 209 3.0 13.0 0.00 0.00 0.00 82 1033.5
20260906055204 43 212 5.0 13.0 0.00 0.00 0.00 82 1033.7
20260906055003 43 212 5.0 11.0 0.00 0.00 0.00 81 1033.8
20260906054917 44 204 4.0 11.0 0.00 0.00 0.00 81 1033.7
20260906054903 44 190 4.0 11.0 0.00 0.00 0.00 81 1033.7
20260906054803 44 168 3.0 11.0 0.00 0.00 0.00 81 1033.8
20260906054603 44 178 1.0 11.0 0.00 0.00 0.00 81 1033.6
20260906054503 44 168 4.0 11.0 0.00 0.00 0.00 81 1033.8
20260906054416 44 186 4.0 8.0 0.00 0.00 0.00 81 1033.7
20260906054403 44 194 4.0 8.0 0.00 0.00 0.00 81 1033.7
20260906054303 44 203 2.0 7.0 0.00 0.00 0.00 81 1033.7
20260906054103 44 180 3.0 6.0 0.00 0.00 0.00 81 1033.8
20260906054003 44 198 1.0 7.0 0.00 0.00 0.00 81 1033.6
20260906053903 44 202 2.0 7.0 0.00 0.00 0.00 81 1033.8
20260906053803 44 207 2.0 7.0 0.00 0.00 0.00 81 1033.7
20260906053703 44 199 3.0 7.0 0.00 0.00 0.00 81 1033.6
20260906053603 44 222 2.0 7.0 0.00 0.00 0.00 81 1033.7
20260906053518 44 225 4.0 8.0 0.00 0.00 0.00 81 1033.7
20260906053504 44 228 2.0 8.0 0.00 0.00 0.00 81 1033.5
20260906053403 44 232 2.0 8.0 0.00 0.00 0.00 81 1033.6
20260906053103 44 231 4.0 8.0 0.00 0.00 0.00 81 1033.5
20260906053003 44 228 3.0 8.0 0.00 0.00 0.00 81 1033.7
20260906052903 44 206 4.0 8.0 0.00 0.00 0.00 81 1033.6
20260906052718 44 196 2.0 7.0 0.00 0.00 0.00 81 1033.5
20260906052704 44 195 3.0 7.0 0.00 0.00 0.00 81 1033.5
20260906052603 44 183 4.0 7.0 0.00 0.00 0.00 81 1033.7
20260906052403 44 185 3.0 7.0 0.00 0.00 0.00 81 1033.5
20260906052305 44 183 4.0 7.0 0.00 0.00 0.00 81 1033.6
20260906052203 44 169 2.0 4.0 0.00 0.00 0.00 81 1033.7
20260906052103 44 156 2.0 4.0 0.00 0.00 0.00 81 1033.6
20260906052003 44 173 2.0 6.0 0.00 0.00 0.00 81 1033.4
20260906051917 44 227 2.0 6.0 0.00 0.00 0.00 81 1033.5
20260906051903 44 231 0.0 6.0 0.00 0.00 0.00 81 1033.6
20260906051803 44 236 2.0 7.0 0.00 0.00 0.00 81 1033.7
20260906051603 44 245 2.0 7.0 0.00 0.00 0.00 81 1033.3
20260906051503 44 230 2.0 7.0 0.00 0.00 0.00 81 1033.4
20260906051405 44 215 3.0 8.0 0.00 0.00 0.00 81 1033.3
20260906051303 44 210 3.0 8.0 0.00 0.00 0.00 81 1033.6
20260906051217 44 207 3.0 8.0 0.00 0.00 0.00 81 1033.5
20260906051203 44 208 3.0 8.0 0.00 0.00 0.00 81 1033.5
20260906051118 44 229 3.0 8.0 0.00 0.00 0.00 81 1033.4
20260906051103 44 231 3.0 8.0 0.00 0.00 0.00 81 1033.7
20260906050803 44 215 3.0 8.0 0.00 0.00 0.00 81 1033.5
20260906050718 44 231 3.0 8.0 0.00 0.00 0.00 81 1033.7
20260906050703 44 231 3.0 8.0 0.00 0.00 0.00 81 1033.6
20260906050603 44 214 3.0 7.0 0.00 0.00 0.00 81 1033.7
20260906050418 44 209 2.0 7.0 0.00 0.00 0.00 81 1033.8
20260906050403 44 212 2.0 7.0 0.00 0.00 0.00 81 1033.8
20260906050317 44 214 3.0 7.0 0.00 0.00 0.00 81 1033.8
20260906050303 44 218 4.0 7.0 0.00 0.00 0.00 81 1033.7
20260906050003 44 214 2.0 6.0 0.00 0.00 0.00 80 1033.5
20260906045917 44 204 3.0 6.0 0.00 0.00 0.00 80 1033.7
20260906045903 44 203 2.0 8.0 0.00 0.00 0.00 80 1033.6
20260906045617 44 199 2.0 8.0 0.00 0.00 0.00 80 1033.5
20260906045603 44 202 2.0 8.0 0.00 0.00 0.00 80 1033.5
20260906045503 44 198 2.0 8.0 0.00 0.00 0.00 80 1033.5
20260906045306 44 196 3.0 7.0 0.00 0.00 0.00 80 1033.6
20260906045203 44 209 3.0 7.0 0.00 0.00 0.00 80 1033.7
20260906045103 44 209 4.0 7.0 0.00 0.00 0.00 80 1033.6
20260906045003 44 219 2.0 7.0 0.00 0.00 0.00 80 1033.6
20260906044903 44 228 2.0 7.0 0.00 0.00 0.00 80 1033.7
20260906044808 44 228 1.0 7.0 0.00 0.00 0.00 80 1033.6
20260906044718 44 231 2.0 7.0 0.00 0.00 0.00 80 1033.6
20260906044603 44 232 3.0 7.0 0.00 0.00 0.00 80 1033.3
20260906044517 44 225 4.0 7.0 0.00 0.00 0.00 80 1033.6
20260906044403 44 245 2.0 4.0 0.00 0.00 0.00 80 1033.5
20260906044317 44 244 1.0 4.0 0.00 0.00 0.00 80 1033.5
20260906044203 44 233 2.0 4.0 0.00 0.00 0.00 80 1033.6
20260906044003 44 216 3.0 4.0 0.00 0.00 0.00 80 1033.5
20260906043903 44 208 2.0 4.0 0.00 0.00 0.00 80 1033.7
20260906043803 44 207 2.0 4.0 0.00 0.00 0.00 80 1033.7
20260906043703 44 211 2.0 4.0 0.00 0.00 0.00 80 1033.7
20260906043503 44 205 2.0 6.0 0.00 0.00 0.00 80 1033.7
20260906043403 44 206 2.0 6.0 0.00 0.00 0.00 80 1033.6
20260906043303 44 204 2.0 6.0 0.00 0.00 0.00 80 1033.6
20260906043203 44 194 2.0 6.0 0.00 0.00 0.00 80 1033.6
20260906043103 44 189 3.0 6.0 0.00 0.00 0.00 80 1033.6
20260906043003 44 191 3.0 6.0 0.00 0.00 0.00 80 1033.4
20260906042903 44 190 2.0 4.0 0.00 0.00 0.00 80 1033.9
20260906042818 44 184 2.0 4.0 0.00 0.00 0.00 80 1033.6
20260906042803 44 183 2.0 4.0 0.00 0.00 0.00 80 1033.6
20260906042703 44 206 2.0 6.0 0.00 0.00 0.00 80 1033.7
20260906042617 44 204 2.0 6.0 0.00 0.00 0.00 80 1033.6
20260906042503 44 196 2.0 6.0 0.00 0.00 0.00 80 1033.4
20260906042306 44 203 2.0 6.0 0.00 0.00 0.00 79 1033.5
20260906042203 44 185 2.0 6.0 0.00 0.00 0.00 79 1033.5
20260906042103 44 204 2.0 6.0 0.00 0.00 0.00 79 1033.6
20260906042003 44 208 2.0 7.0 0.00 0.00 0.00 79 1033.6
20260906041903 44 217 3.0 7.0 0.00 0.00 0.00 79 1033.8
20260906041803 44 206 3.0 7.0 0.00 0.00 0.00 79 1033.6
20260906041703 44 217 4.0 7.0 0.00 0.00 0.00 79 1033.7
20260906041617 44 222 2.0 7.0 0.00 0.00 0.00 79 1033.6
20260906041603 44 223 2.0 7.0 0.00 0.00 0.00 79 1033.6
20260906041503 44 227 2.0 7.0 0.00 0.00 0.00 79 1033.7
20260906041303 44 246 4.0 7.0 0.00 0.00 0.00 79 1033.9
20260906041208 44 253 3.0 6.0 0.00 0.00 0.00 79 1033.6
20260906041103 44 236 2.0 4.0 0.00 0.00 0.00 79 1033.6
20260906041004 44 234 2.0 4.0 0.00 0.00 0.00 79 1033.6
20260906040903 44 190 2.0 4.0 0.00 0.00 0.00 79 1033.6
20260906040703 44 189 2.0 7.0 0.00 0.00 0.00 79 1033.4
20260906040603 44 183 2.0 7.0 0.00 0.00 0.00 79 1033.4
20260906040503 44 190 2.0 7.0 0.00 0.00 0.00 79 1033.4
20260906040403 44 210 2.0 7.0 0.00 0.00 0.00 79 1033.6
20260906040303 44 226 3.0 7.0 0.00 0.00 0.00 79 1033.4
20260906040203 44 226 2.0 6.0 0.00 0.00 0.00 79 1033.6
20260906040103 44 218 2.0 6.0 0.00 0.00 0.00 79 1033.6
20260906040005 44 230 2.0 6.0 0.00 0.00 0.00 79 1033.5
20260906035903 44 230 2.0 7.0 0.00 0.00 0.00 79 1033.5
20260906035803 44 220 2.0 7.0 0.00 0.00 0.00 79 1033.6
20260906035703 44 223 2.0 7.0 0.00 0.00 0.00 79 1033.5
20260906035503 44 220 4.0 7.0 0.00 0.00 0.00 79 1033.5
20260906035403 44 202 2.0 7.0 0.00 0.00 0.00 78 1033.6
20260906035306 44 205 1.0 7.0 0.00 0.00 0.00 78 1033.5
20260906035204 44 215 2.0 8.0 0.00 0.00 0.00 78 1033.5
20260906035117 44 223 3.0 8.0 0.00 0.00 0.00 78 1033.5
20260906035103 44 221 3.0 8.0 0.00 0.00 0.00 78 1033.4
20260906035003 44 210 3.0 8.0 0.00 0.00 0.00 78 1033.6
20260906034803 44 220 2.0 8.0 0.00 0.00 0.00 78 1033.5
20260906034705 44 204 2.0 8.0 0.00 0.00 0.00 78 1033.6
20260906034603 44 196 2.0 8.0 0.00 0.00 0.00 78 1033.5
20260906034503 44 205 2.0 8.0 0.00 0.00 0.00 78 1033.7
20260906034418 44 201 4.0 8.0 0.00 0.00 0.00 78 1033.4
20260906034403 44 202 4.0 8.0 0.00 0.00 0.00 78 1033.4
20260906034318 44 207 2.0 7.0 0.00 0.00 0.00 78 1033.3
20260906034303 44 206 3.0 7.0 0.00 0.00 0.00 78 1033.6
20260906034117 44 200 4.0 8.0 0.00 0.00 0.00 78 1033.3
20260906034019 45 182 3.0 8.0 0.00 0.00 0.00 78 1033.3
20260906034003 45 178 3.0 8.0 0.00 0.00 0.00 78 1033.3
20260906033703 45 202 2.0 8.0 0.00 0.00 0.00 77 1033.5
20260906033616 45 205 4.0 8.0 0.00 0.00 0.00 77 1033.8
20260906033603 45 206 4.0 8.0 0.00 0.00 0.00 77 1033.8
20260906033503 45 237 3.0 7.0 0.00 0.00 0.00 77 1033.5
20260906033303 45 223 4.0 7.0 0.00 0.00 0.00 77 1033.5
20260906033205 45 180 4.0 7.0 0.00 0.00 0.00 77 1033.4
20260906033103 45 177 4.0 7.0 0.00 0.00 0.00 77 1033.4
20260906033003 45 179 3.0 6.0 0.00 0.00 0.00 77 1033.6
20260906032906 45 185 2.0 6.0 0.00 0.00 0.00 77 1033.2
20260906032817 45 204 2.0 7.0 0.00 0.00 0.00 77 1033.5
20260906032803 45 210 2.0 7.0 0.00 0.00 0.00 77 1033.5
20260906032703 45 239 2.0 7.0 0.00 0.00 0.00 77 1033.3
20260906032503 45 240 3.0 7.0 0.00 0.00 0.00 77 1033.1
20260906032403 45 244 2.0 7.0 0.00 0.00 0.00 77 1033.3
20260906032306 45 246 4.0 6.0 0.00 0.00 0.00 77 1033.4
20260906032203 45 216 2.0 6.0 0.00 0.00 0.00 76 1033.3
20260906032103 45 222 3.0 7.0 0.00 0.00 0.00 76 1033.3
20260906032003 45 221 2.0 7.0 0.00 0.00 0.00 76 1033.3
20260906031903 45 223 2.0 7.0 0.00 0.00 0.00 76 1033.3
20260906031803 45 218 3.0 7.0 0.00 0.00 0.00 76 1033.2
20260906031703 45 244 3.0 7.0 0.00 0.00 0.00 76 1033.0
20260906031603 45 238 4.0 7.0 0.00 0.00 0.00 76 1032.9
20260906031503 45 232 2.0 8.0 0.00 0.00 0.00 76 1033.2
20260906031403 45 226 4.0 8.0 0.00 0.00 0.00 76 1033.1
20260906031324 45 227 2.0 8.0 0.00 0.00 0.00 76 1032.8
20260906031003 45 208 3.0 8.0 0.00 0.00 0.00 75 1033.0
20260906030903 45 193 3.0 8.0 0.00 0.00 0.00 75 1033.0
20260906030808 45 187 4.0 8.0 0.00 0.00 0.00 75 1033.3
20260906030703 45 195 4.0 7.0 0.00 0.00 0.00 75 1033.1
20260906030603 45 207 2.0 7.0 0.00 0.00 0.00 75 1033.1
20260906030503 45 207 3.0 7.0 0.00 0.00 0.00 75 1032.9
20260906030420 45 218 2.0 7.0 0.00 0.00 0.00 75 1032.9
20260906030403 45 225 2.0 7.0 0.00 0.00 0.00 75 1032.9
20260906030303 45 224 4.0 7.0 0.00 0.00 0.00 75 1033.2
20260906030104 45 205 4.0 7.0 0.00 0.00 0.00 74 1032.9
20260906030009 46 205 3.0 7.0 0.00 0.00 0.00 74 1033.1
20260906025903 45 211 4.0 9.0 0.00 0.00 0.00 74 1033.0
20260906025819 45 206 4.0 9.0 0.00 0.00 0.00 74 1033.0
20260906025803 45 195 2.0 14.0 0.00 0.00 0.00 74 1033.1
20260906025703 45 194 4.0 14.0 0.00 0.00 0.00 74 1033.0
20260906025503 46 205 4.0 14.0 0.00 0.00 0.00 74 1033.2
20260906025403 46 202 5.0 14.0 0.00 0.00 0.00 73 1033.0
20260906025306 46 218 5.0 14.0 0.00 0.00 0.00 73 1033.1
20260906025203 46 226 3.0 7.0 0.00 0.00 0.00 73 1033.1
20260906025103 46 224 4.0 8.0 0.00 0.00 0.00 73 1033.0
20260906025003 46 226 4.0 8.0 0.00 0.00 0.00 73 1033.0
20260906024903 46 223 2.0 8.0 0.00 0.00 0.00 73 1032.8
20260906024805 46 216 2.0 8.0 0.00 0.00 0.00 73 1032.9
20260906024717 46 222 3.0 8.0 0.00 0.00 0.00 73 1032.9
20260906024703 46 224 4.0 8.0 0.00 0.00 0.00 72 1032.8
20260906024603 46 224 3.0 7.0 0.00 0.00 0.00 72 1032.9
20260906024403 46 223 2.0 7.0 0.00 0.00 0.00 72 1033.0
20260906024307 46 226 2.0 7.0 0.00 0.00 0.00 72 1032.9
20260906024203 46 222 4.0 9.0 0.00 0.00 0.00 72 1033.0
20260906024104 46 208 4.0 9.0 0.00 0.00 0.00 72 1033.0
20260906024017 46 203 3.0 9.0 0.00 0.00 0.00 72 1032.9
20260906024003 46 204 3.0 9.0 0.00 0.00 0.00 72 1032.9
20260906023918 46 205 2.0 9.0 0.00 0.00 0.00 72 1032.7
20260906023908 46 207 3.0 9.0 0.00 0.00 0.00 72 1033.1
20260906023603 46 199 3.0 7.0 0.00 0.00 0.00 71 1032.8
20260906023517 46 193 3.0 7.0 0.00 0.00 0.00 71 1032.8
20260906023503 46 191 2.0 7.0 0.00 0.00 0.00 71 1033.0
20260906023403 46 186 4.0 7.0 0.00 0.00 0.00 71 1032.8
20260906023203 46 193 2.0 6.0 0.00 0.00 0.00 71 1032.8
20260906023103 46 202 3.0 6.0 0.00 0.00 0.00 71 1032.7
20260906023003 46 206 3.0 7.0 0.00 0.00 0.00 70 1032.7
20260906022920 46 205 2.0 7.0 0.00 0.00 0.00 70 1032.9
20260906022903 46 201 2.0 7.0 0.00 0.00 0.00 70 1032.9
20260906022805 46 196 2.0 7.0 0.00 0.00 0.00 70 1032.9
20260906022603 46 201 2.0 8.0 0.00 0.00 0.00 70 1032.9
20260906022503 46 195 4.0 8.0 0.00 0.00 0.00 70 1032.7
20260906022403 46 202 4.0 8.0 0.00 0.00 0.00 70 1032.7
20260906022306 46 202 2.0 8.0 0.00 0.00 0.00 69 1032.8
20260906022204 46 191 2.0 8.0 0.00 0.00 0.00 69 1032.8
20260906022117 46 184 4.0 8.0 0.00 0.00 0.00 69 1032.8
20260906022103 46 182 4.0 8.0 0.00 0.00 0.00 69 1032.8
20260906022023 46 179 4.0 7.0 0.00 0.00 0.00 69 1032.7
20260906022003 46 181 4.0 7.0 0.00 0.00 0.00 69 1032.7
20260906021823 46 163 3.0 7.0 0.00 0.00 0.00 69 1032.9
20260906021717 46 164 2.0 7.0 0.00 0.00 0.00 69 1032.8
20260906021703 46 165 2.0 7.0 0.00 0.00 0.00 69 1032.8
20260906021403 46 204 4.0 8.0 0.00 0.00 0.00 68 1032.8
20260906021303 46 224 3.0 8.0 0.00 0.00 0.00 68 1032.9
20260906021203 46 231 2.0 8.0 0.00 0.00 0.00 68 1032.8
20260906021103 46 228 2.0 8.0 0.00 0.00 0.00 68 1032.7
20260906020903 46 208 4.0 8.0 0.00 0.00 0.00 68 1032.5
20260906020803 46 200 2.0 7.0 0.00 0.00 0.00 68 1032.7
20260906020703 46 200 3.0 7.0 0.00 0.00 0.00 67 1032.5
20260906020603 46 198 4.0 7.0 0.00 0.00 0.00 67 1032.6
20260906020503 46 204 3.0 7.0 0.00 0.00 0.00 67 1032.8
20260906020303 46 212 3.0 7.0 0.00 0.00 0.00 67 1032.6
20260906020203 46 217 1.0 6.0 0.00 0.00 0.00 67 1032.7
20260906020103 46 221 2.0 6.0 0.00 0.00 0.00 67 1032.5
20260906020006 46 226 4.0 6.0 0.00 0.00 0.00 66 1032.6
20260906015903 46 221 2.0 7.0 0.00 0.00 0.00 66 1032.5
20260906015703 46 234 3.0 8.0 0.00 0.00 0.00 66 1032.6
20260906015603 46 235 2.0 8.0 0.00 0.00 0.00 66 1032.5
20260906015519 46 232 3.0 8.0 0.00 0.00 0.00 66 1032.4
20260906015503 46 230 4.0 8.0 0.00 0.00 0.00 66 1032.4
20260906015403 46 225 4.0 8.0 0.00 0.00 0.00 65 1032.4
20260906015117 46 201 2.0 6.0 0.00 0.00 0.00 65 1032.2
20260906015104 47 200 3.0 6.0 0.00 0.00 0.00 65 1032.3
20260906015004 46 196 2.0 6.0 0.00 0.00 0.00 65 1032.2
20260906014713 47 241 2.0 4.0 0.00 0.00 0.00 65 1032.4
20260906014603 47 247 2.0 4.0 0.00 0.00 0.00 64 1032.1
20260906014503 47 247 3.0 4.0 0.00 0.00 0.00 64 1032.5
20260906014403 47 242 3.0 6.0 0.00 0.00 0.00 64 1032.2
20260906014303 47 215 2.0 8.0 0.00 0.00 0.00 64 1032.3
20260906014117 47 219 2.0 8.0 0.00 0.00 0.00 64 1032.1
20260906014003 47 214 4.0 8.0 0.00 0.00 0.00 64 1032.0
20260906013803 47 216 2.0 7.0 0.00 0.00 0.00 64 1032.1
20260906013703 47 211 2.0 7.0 0.00 0.00 0.00 64 1032.2
20260906013510 47 217 2.0 7.0 0.00 0.00 0.00 64 1032.1
20260906013403 47 224 4.0 6.0 0.00 0.00 0.00 64 1032.3
20260906013204 47 245 2.0 7.0 0.00 0.00 0.00 64 1032.2
20260906013103 47 240 4.0 7.0 0.00 0.00 0.00 63 1032.0
20260906013003 47 237 3.0 7.0 0.00 0.00 0.00 63 1032.0
20260906012903 47 235 2.0 7.0 0.00 0.00 0.00 63 1032.0
20260906012803 47 230 3.0 7.0 0.00 0.00 0.00 63 1032.2
20260906012703 47 219 3.0 6.0 0.00 0.00 0.00 63 1032.0
20260906012603 47 224 4.0 6.0 0.00 0.00 0.00 63 1031.9
20260906012503 47 227 3.0 6.0 0.00 0.00 0.00 63 1032.0
20260906012403 47 212 2.0 6.0 0.00 0.00 0.00 63 1032.2
20260906012207 47 188 2.0 7.0 0.00 0.00 0.00 62 1032.1
20260906012117 47 193 3.0 7.0 0.00 0.00 0.00 62 1032.0
20260906012103 47 192 3.0 7.0 0.00 0.00 0.00 62 1032.0
20260906011818 47 218 2.0 7.0 0.00 0.00 0.00 62 1031.8
20260906011703 47 211 4.0 7.0 0.00 0.00 0.00 62 1031.9
20260906011503 47 201 2.0 9.0 0.00 0.00 0.00 61 1032.2
20260906011403 47 187 2.0 9.0 0.00 0.00 0.00 61 1031.9
20260906011317 47 178 4.0 9.0 0.00 0.00 0.00 61 1032.1
20260906011303 47 189 4.0 9.0 0.00 0.00 0.00 61 1032.1
20260906011203 48 205 4.0 9.0 0.00 0.00 0.00 61 1032.0
20260906011116 48 224 4.0 9.0 0.00 0.00 0.00 61 1031.9
20260906011003 48 214 4.0 6.0 0.00 0.00 0.00 61 1032.1
20260906010818 48 224 2.0 7.0 0.00 0.00 0.00 61 1031.9
20260906010803 48 225 2.0 7.0 0.00 0.00 0.00 61 1031.9
20260906010703 48 218 3.0 7.0 0.00 0.00 0.00 61 1031.9
20260906010303 48 188 2.0 6.0 0.00 0.00 0.00 60 1031.9
20260906010203 48 199 3.0 6.0 0.00 0.00 0.00 60 1031.8
20260906010103 48 203 2.0 6.0 0.00 0.00 0.00 60 1031.8
20260906010004 48 211 4.0 6.0 0.00 0.00 0.00 60 1031.6
20260906005903 48 236 3.0 7.0 0.00 0.00 0.00 60 1031.8
20260906005808 48 223 3.0 7.0 0.00 0.00 0.00 60 1031.9
20260906005703 48 209 4.0 7.0 0.00 0.00 0.00 60 1031.8
20260906005603 48 201 3.0 7.0 0.00 0.00 0.00 60 1031.5
20260906005503 48 210 2.0 7.0 0.00 0.00 0.00 60 1031.6
20260906005306 48 223 2.0 6.0 0.00 0.00 0.00 60 1031.8
20260906005203 48 223 3.0 6.0 0.00 0.00 0.00 60 1031.5
20260906005103 48 228 2.0 6.0 0.00 0.00 0.00 60 1031.6
20260906005017 48 219 2.0 6.0 0.00 0.00 0.00 60 1031.7
20260906004904 48 231 3.0 7.0 0.00 0.00 0.00 60 1031.5
20260906004717 48 232 2.0 7.0 0.00 0.00 0.00 59 1031.6
20260906004703 48 236 3.0 7.0 0.00 0.00 0.00 60 1031.5
20260906004603 48 234 2.0 7.0 0.00 0.00 0.00 59 1031.8
20260906004518 48 242 2.0 7.0 0.00 0.00 0.00 60 1031.5
20260906004404 48 234 3.0 7.0 0.00 0.00 0.00 60 1031.3
20260906004203 48 225 2.0 7.0 0.00 0.00 0.00 60 1031.4
20260906004103 48 221 2.0 7.0 0.00 0.00 0.00 59 1031.6
20260906004008 48 225 3.0 7.0 0.00 0.00 0.00 59 1031.1
20260906003903 48 220 2.0 4.0 0.00 0.00 0.00 59 1031.3
20260906003803 48 207 2.0 4.0 0.00 0.00 0.00 59 1031.4
20260906003603 48 206 2.0 4.0 0.00 0.00 0.00 60 1031.4
20260906003503 48 213 2.0 6.0 0.00 0.00 0.00 59 1031.3
20260906003418 48 223 2.0 6.0 0.00 0.00 0.00 59 1031.3
20260906003403 48 219 2.0 6.0 0.00 0.00 0.00 59 1031.3
20260906003303 48 223 2.0 6.0 0.00 0.00 0.00 59 1031.3
20260906003103 48 248 3.0 6.0 0.00 0.00 0.00 59 1031.2
20260906003003 48 254 3.0 6.0 0.00 0.00 0.00 59 1031.2
20260906002903 48 252 3.0 6.0 0.00 0.00 0.00 59 1031.1
20260906002703 48 239 4.0 8.0 0.00 0.00 0.00 59 1031.3
20260906002603 48 228 4.0 8.0 0.00 0.00 0.00 59 1031.1
20260906002503 48 219 2.0 9.0 0.00 0.00 0.00 59 1031.3
20260906002403 48 218 3.0 9.0 0.00 0.00 0.00 59 1030.9
20260906002305 48 221 2.0 9.0 0.00 0.00 0.00 59 1031.1
20260906002203 48 230 2.0 9.0 0.00 0.00 0.00 59 1031.2
20260906002118 48 231 3.0 9.0 0.00 0.00 0.00 59 1030.9
20260906002103 48 232 3.0 9.0 0.00 0.00 0.00 59 1030.9
20260906002003 48 238 5.0 9.0 0.00 0.00 0.00 59 1031.0
20260906001803 48 236 2.0 7.0 0.00 0.00 0.00 59 1030.8
20260906001703 48 239 3.0 7.0 0.00 0.00 0.00 59 1030.9
20260906001603 48 243 2.0 7.0 0.00 0.00 0.00 59 1031.0
20260906001518 48 247 3.0 7.0 0.00 0.00 0.00 59 1030.9
20260906001503 48 248 3.0 4.0 0.00 0.00 0.00 58 1031.0
20260906001403 48 254 3.0 7.0 0.00 0.00 0.00 58 1030.7
20260906001203 49 246 2.0 7.0 0.00 0.00 0.00 59 1030.9
20260906001103 49 248 3.0 7.0 0.00 0.00 0.00 58 1030.6
20260906001003 49 244 3.0 7.0 0.00 0.00 0.00 58 1030.9
20260906000903 49 239 4.0 7.0 0.00 0.00 0.00 58 1030.9
20260906000813 49 238 4.0 7.0 0.00 0.00 0.00 58 1030.9
20260906000718 49 249 4.0 7.0 0.00 0.00 0.00 58 1030.7
20260906000603 49 252 2.0 6.0 0.00 0.00 0.00 58 1030.8
20260906000403 49 244 3.0 7.0 0.00 0.00 0.00 58 1030.7
20260906000318 49 233 4.0 7.0 0.00 0.00 0.00 58 1030.6
20260906000304 49 234 3.0 7.0 0.00 0.00 0.00 58 1030.5
20260906000204 49 230 2.0 7.0 0.00 0.00 0.00 58 1030.5
20260906000003 49 203 3.0 7.0 0.00 0.00 0.00 58 1030.5
20260905235903 49 223 3.0 6.0 0.00 0.00 0.00 57 1030.6
20260905235803 49 245 2.0 4.0 0.00 0.00 0.00 58 1030.4
20260905235703 49 226 2.0 6.0 0.00 0.00 0.00 58 1030.5
20260905235617 49 223 1.0 6.0 0.00 0.00 0.00 58 1030.3
20260905235603 49 226 1.0 6.0 0.00 0.00 0.00 58 1030.3
20260905235504 49 231 2.0 6.0 0.00 0.00 0.00 57 1030.4
20260905235306 49 227 2.0 6.0 0.00 0.00 0.00 57 1030.7
20260905235204 49 231 3.0 7.0 0.00 0.00 0.00 57 1030.5
20260905235118 49 235 3.0 7.0 0.00 0.00 0.00 57 1030.4
20260905235103 49 235 2.0 7.0 0.00 0.00 0.00 57 1030.5
20260905235003 49 236 2.0 7.0 0.00 0.00 0.00 57 1030.3
20260905234917 49 235 2.0 7.0 0.00 0.00 0.00 57 1030.4
20260905234604 49 212 4.0 7.0 0.00 0.00 0.00 56 1030.3
20260905234503 49 200 4.0 7.0 0.00 0.00 0.00 56 1030.3
20260905234403 49 217 4.0 9.0 0.00 0.00 0.00 56 1030.3
20260905234303 49 208 4.0 9.0 0.00 0.00 0.00 56 1030.1
20260905234203 49 197 4.0 9.0 0.00 0.00 0.00 56 1030.2
20260905234103 49 210 4.0 9.0 0.00 0.00 0.00 56 1030.2
20260905234019 49 216 4.0 9.0 0.00 0.00 0.00 56 1030.4
20260905234003 49 215 4.0 9.0 0.00 0.00 0.00 56 1030.4
20260905233903 49 203 4.0 9.0 0.00 0.00 0.00 56 1030.2
20260905233706 49 202 3.0 7.0 0.00 0.00 0.00 56 1030.3
20260905233603 49 215 3.0 7.0 0.00 0.00 0.00 56 1030.2
20260905233503 49 201 3.0 7.0 0.00 0.00 0.00 56 1030.2
20260905233403 49 204 2.0 7.0 0.00 0.00 0.00 56 1030.3
20260905233303 49 217 4.0 7.0 0.00 0.00 0.00 55 1030.2
20260905233207 50 221 4.0 7.0 0.00 0.00 0.00 55 1030.1
20260905233104 50 211 4.0 7.0 0.00 0.00 0.00 55 1030.4
20260905233005 50 219 3.0 7.0 0.00 0.00 0.00 55 1030.4
20260905232903 50 222 2.0 7.0 0.00 0.00 0.00 55 1030.4
20260905232803 50 219 3.0 7.0 0.00 0.00 0.00 55 1030.1
20260905232703 50 214 4.0 6.0 0.00 0.00 0.00 55 1030.3
20260905232603 50 222 3.0 8.0 0.00 0.00 0.00 55 1030.2
20260905232503 50 229 3.0 8.0 0.00 0.00 0.00 55 1030.1
20260905232403 50 230 2.0 8.0 0.00 0.00 0.00 55 1030.3
20260905232317 50 229 3.0 8.0 0.00 0.00 0.00 55 1030.0
20260905232306 50 228 3.0 8.0 0.00 0.00 0.00 55 1030.3
20260905232203 50 231 4.0 8.0 0.00 0.00 0.00 55 1030.2
20260905232118 50 223 4.0 8.0 0.00 0.00 0.00 55 1030.1
20260905232003 50 220 4.0 8.0 0.00 0.00 0.00 55 1030.0
20260905231807 50 225 2.0 6.0 0.00 0.00 0.00 55 1029.8
20260905231703 50 226 2.0 6.0 0.00 0.00 0.00 55 1030.0
20260905231603 50 227 2.0 8.0 0.00 0.00 0.00 55 1029.9
20260905231503 50 229 3.0 8.0 0.00 0.00 0.00 55 1030.0
20260905231403 50 225 2.0 8.0 0.00 0.00 0.00 55 1029.9
20260905231317 50 231 2.0 8.0 0.00 0.00 0.00 54 1029.9
20260905231303 50 232 2.0 8.0 0.00 0.00 0.00 54 1029.9
20260905231204 50 228 3.0 8.0 0.00 0.00 0.00 54 1029.8
20260905231003 50 255 3.0 7.0 0.00 0.00 0.00 54 1030.1
20260905230903 50 254 3.0 8.0 0.00 0.00 0.00 54 1029.9
20260905230818 50 242 3.0 9.0 0.00 0.00 0.00 54 1030.0
20260905230806 50 239 3.0 9.0 0.00 0.00 0.00 54 1030.0
20260905230703 50 237 4.0 9.0 0.00 0.00 0.00 54 1029.8
20260905230503 50 225 4.0 9.0 0.00 0.00 0.00 53 1029.7
20260905230403 50 223 5.0 9.0 0.00 0.00 0.00 53 1030.0
20260905230303 50 223 4.0 9.0 0.00 0.00 0.00 53 1029.8
20260905230203 50 234 4.0 7.0 0.00 0.00 0.00 53 1030.0
20260905230103 50 218 3.0 8.0 0.00 0.00 0.00 53 1029.9
20260905230004 50 215 4.0 8.0 0.00 0.00 0.00 53 1029.9
20260905225921 50 208 2.0 8.0 0.00 0.00 0.00 53 1029.7
20260905225903 51 207 3.0 8.0 0.00 0.00 0.00 53 1030.0
20260905225803 51 206 2.0 8.0 0.00 0.00 0.00 53 1029.7
20260905225603 51 211 3.0 8.0 0.00 0.00 0.00 53 1029.8
20260905225503 51 215 4.0 8.0 0.00 0.00 0.00 52 1029.9
20260905225403 51 225 3.0 6.0 0.00 0.00 0.00 52 1029.7
20260905225305 51 223 3.0 6.0 0.00 0.00 0.00 52 1029.9